W3MSB Weather Reports


Display with metric or nautical units.
time (UTC)temp
F
wind
direction
speed
MPH
gust
MPH
rain 1hr
in
rain 24hr
in
rain mn
in
humidity
%
barometer
mb
20260509224205 66 142 4.0 8.0 0.00 0.17 0.17 69 1007.9
20260509224117 66 140 4.0 8.0 0.00 0.17 0.17 69 1007.9
20260509224110 66 142 4.0 8.0 0.00 0.17 0.17 69 1007.9
20260509223854 66 140 4.0 8.0 0.00 0.17 0.17 69 1007.8
20260509223811 66 128 3.0 7.0 0.00 0.17 0.17 68 1007.8
20260509223803 66 130 3.0 8.0 0.00 0.17 0.17 68 1007.8
20260509223542 66 139 3.0 7.0 0.00 0.17 0.17 68 1007.8
20260509223442 66 174 3.0 7.0 0.00 0.17 0.17 68 1007.8
20260509223336 66 200 3.0 6.0 0.00 0.17 0.17 68 1007.9
20260509223236 66 182 3.0 6.0 0.00 0.17 0.17 67 1007.9
20260509223130 67 121 3.0 6.0 0.00 0.17 0.17 68 1007.9
20260509223047 67 106 3.0 6.0 0.00 0.17 0.17 70 1007.9
20260509223039 67 107 3.0 6.0 0.00 0.17 0.17 69 1007.9
20260509222824 66 104 3.0 6.0 0.00 0.17 0.17 70 1007.9
20260509222718 66 105 3.0 6.0 0.00 0.17 0.17 69 1007.9
20260509222618 66 143 3.0 6.0 0.00 0.17 0.17 69 1007.9
20260509222512 66 144 3.0 6.0 0.00 0.17 0.17 69 1007.9
20260509222412 66 162 3.0 6.0 0.00 0.17 0.17 68 1007.9
20260509222307 66 162 3.0 7.0 0.00 0.17 0.17 68 1007.9
20260509222206 67 144 3.0 7.0 0.00 0.17 0.17 69 1007.9
20260509222100 66 145 3.0 7.0 0.00 0.17 0.17 69 1007.9
20260509222000 66 174 3.0 7.0 0.00 0.17 0.17 69 1007.9
20260509221853 66 177 3.0 7.0 0.00 0.17 0.17 69 1007.9
20260509221754 66 176 3.0 7.0 0.00 0.17 0.17 69 1007.9
20260509221649 66 175 3.0 7.0 0.00 0.17 0.17 67 1007.9
20260509221548 66 171 3.0 7.0 0.00 0.17 0.17 67 1007.9
20260509221446 66 169 3.0 7.0 0.00 0.17 0.17 68 1007.9
20260509221343 66 167 3.0 7.0 0.00 0.17 0.17 69 1007.9
20260509221244 66 170 4.0 7.0 0.00 0.17 0.17 68 1007.8
20260509221208 67 186 4.0 7.0 0.00 0.17 0.17 67 1007.8
20260509221200 66 171 4.0 7.0 0.00 0.17 0.17 67 1007.8
20260509220944 67 186 4.0 7.0 0.00 0.17 0.17 68 1007.9
20260509220844 67 186 4.0 7.0 0.00 0.17 0.17 68 1007.9
20260509220738 67 186 4.0 7.0 0.00 0.17 0.17 68 1007.9
20260509220637 67 188 4.0 7.0 0.00 0.17 0.17 68 1007.9
20260509220531 67 182 4.0 7.0 0.00 0.17 0.17 68 1007.9
20260509220432 67 181 4.0 7.0 0.00 0.17 0.17 68 1007.9
20260509220326 67 187 4.0 7.0 0.00 0.17 0.17 69 1007.9
20260509220225 67 167 4.0 6.0 0.00 0.17 0.17 69 1007.9
20260509220125 67 130 4.0 6.0 0.00 0.17 0.17 69 1007.9
20260509220026 67 125 4.0 7.0 0.00 0.17 0.17 69 1007.9
20260509215926 67 150 4.0 7.0 0.00 0.17 0.17 69 1007.9
20260509215825 67 145 4.0 7.0 0.00 0.17 0.17 71 1007.9
20260509215726 67 132 4.0 7.0 0.00 0.17 0.17 72 1007.9
20260509215626 67 128 3.0 7.0 0.00 0.17 0.17 71 1007.9
20260509215523 67 129 3.0 7.0 0.00 0.17 0.17 71 1007.9
20260509215423 67 132 3.0 7.0 0.00 0.17 0.17 71 1008.0
20260509215323 67 117 3.0 7.0 0.00 0.17 0.17 70 1008.0
20260509215223 67 108 3.0 7.0 0.00 0.17 0.17 68 1008.1
20260509215145 67 98 2.0 7.0 0.00 0.17 0.17 71 1008.1
20260509215139 67 107 3.0 7.0 0.00 0.17 0.17 69 1008.1
20260509214924 67 163 2.0 6.0 0.00 0.17 0.17 71 1008.1
20260509214820 67 164 2.0 6.0 0.00 0.17 0.17 70 1008.1
20260509214720 67 164 2.0 6.0 0.00 0.17 0.17 70 1008.1
20260509214617 66 164 3.0 6.0 0.00 0.17 0.17 71 1008.2
20260509214518 66 164 3.0 6.0 0.00 0.17 0.17 71 1008.1
20260509214418 66 149 3.0 6.0 0.00 0.17 0.17 71 1008.1
20260509214341 66 125 3.0 6.0 0.00 0.17 0.17 73 1008.1
20260509214334 66 126 3.0 6.0 0.00 0.17 0.17 72 1008.0
20260509214138 66 142 3.0 6.0 0.00 0.17 0.17 72 1008.2
20260509214130 66 124 3.0 6.0 0.00 0.17 0.17 72 1008.1
20260509213938 66 144 3.0 6.0 0.00 0.17 0.17 71 1008.2
20260509213929 66 142 3.0 6.0 0.00 0.17 0.17 71 1008.2
20260509213716 66 144 3.0 6.0 0.00 0.17 0.17 72 1008.2
20260509213616 66 144 3.0 6.0 0.00 0.17 0.17 73 1008.2
20260509213512 66 143 3.0 6.0 0.00 0.17 0.17 74 1008.2
20260509213412 65 138 3.0 7.0 0.00 0.17 0.17 75 1008.2
20260509213312 65 140 3.0 7.0 0.00 0.17 0.17 76 1008.2
20260509213212 65 140 3.0 7.0 0.00 0.17 0.17 77 1008.2
20260509213111 65 141 2.0 7.0 0.00 0.17 0.17 76 1008.2
20260509213012 65 141 2.0 7.0 0.00 0.17 0.17 76 1008.2
20260509212936 64 138 3.0 7.0 0.00 0.17 0.17 76 1008.2
20260509212928 64 138 2.0 7.0 0.00 0.17 0.17 77 1008.2
20260509212712 64 138 3.0 7.0 0.00 0.17 0.17 76 1008.2
20260509212610 64 137 3.0 7.0 0.00 0.17 0.17 78 1008.2
20260509212509 64 108 3.0 7.0 0.00 0.17 0.17 77 1008.2
20260509212410 64 110 3.0 7.0 0.00 0.17 0.17 77 1008.2
20260509212332 64 156 3.0 7.0 0.00 0.17 0.17 76 1008.2
20260509212323 64 155 3.0 7.0 0.00 0.17 0.17 76 1008.2
20260509212133 63 155 4.0 7.0 0.00 0.17 0.17 78 1008.3
20260509212124 64 155 4.0 7.0 0.00 0.17 0.17 77 1008.3
20260509211931 63 134 4.0 7.0 0.00 0.17 0.17 78 1008.3
20260509211924 63 137 4.0 7.0 0.00 0.17 0.17 78 1008.3
20260509211708 63 134 3.0 7.0 0.00 0.17 0.17 78 1008.3
20260509211607 63 137 3.0 7.0 0.00 0.17 0.17 78 1008.3
20260509211507 63 138 3.0 7.0 0.00 0.17 0.17 78 1008.3
20260509211409 63 126 3.0 7.0 0.00 0.17 0.17 77 1008.3
20260509211330 63 124 3.0 7.0 0.00 0.17 0.17 77 1008.4
20260509211322 63 124 3.0 7.0 0.00 0.17 0.17 77 1008.3
20260509211108 63 136 3.0 7.0 0.00 0.17 0.17 78 1008.4
20260509211005 63 136 3.0 7.0 0.00 0.17 0.17 79 1008.3
20260509210904 63 132 3.0 7.0 0.00 0.17 0.17 80 1008.4
20260509210806 63 133 3.0 7.0 0.00 0.17 0.17 82 1008.4
20260509210728 62 129 2.0 7.0 0.00 0.17 0.17 83 1008.4
20260509210720 62 134 2.0 7.0 0.00 0.17 0.17 83 1008.4
20260509210506 62 122 2.0 7.0 0.00 0.17 0.17 83 1008.4
20260509210406 62 123 2.0 7.0 0.00 0.17 0.17 84 1008.5
20260509210326 61 108 1.0 5.0 0.00 0.17 0.17 84 1008.5
20260509210320 61 123 2.0 7.0 0.00 0.17 0.17 84 1008.5
20260509210003 60 47 1.0 3.0 0.00 0.17 0.17 84 1008.5
20260509205902 60 47 2.0 3.0 0.00 0.17 0.17 84 1008.6
20260509205803 60 47 2.0 3.0 0.00 0.17 0.17 83 1008.6
20260509205703 60 47 1.0 3.0 0.00 0.17 0.17 82 1008.6
20260509205604 60 46 1.0 3.0 0.00 0.17 0.17 82 1008.6
20260509205459 60 44 2.0 3.0 0.00 0.17 0.17 82 1008.7
20260509205400 60 44 2.0 3.0 0.00 0.17 0.17 83 1008.7
20260509205259 60 44 2.0 3.0 0.00 0.17 0.17 83 1008.7
20260509205200 60 44 2.0 3.0 0.00 0.17 0.17 83 1008.8
20260509205059 60 44 2.0 3.0 0.00 0.17 0.17 83 1008.8
20260509205008 60 43 1.0 5.0 0.00 0.17 0.17 84 1008.8
20260509205003 60 44 1.0 3.0 0.00 0.17 0.17 83 1008.8
20260509204949 60 44 1.0 3.0 0.00 0.17 0.17 84 1008.8
20260509204836 59 43 1.0 5.0 0.00 0.17 0.17 84 1008.9
20260509204825 60 44 1.0 3.0 0.00 0.17 0.17 84 1008.8
20260509204455 59 43 1.0 5.0 0.00 0.17 0.17 85 1008.8
20260509204355 59 43 1.0 5.0 0.00 0.17 0.17 85 1008.8
20260509204255 59 43 1.0 5.0 0.00 0.17 0.17 85 1008.8
20260509204155 59 43 1.0 5.0 0.00 0.17 0.17 84 1008.8
20260509204055 59 42 1.0 5.0 0.00 0.17 0.17 84 1008.8
20260509203956 59 41 1.0 5.0 0.00 0.17 0.17 85 1008.8
20260509203850 59 41 1.0 5.0 0.00 0.17 0.17 85 1008.9
20260509203751 59 41 1.0 5.0 0.00 0.17 0.17 85 1008.9
20260509203652 59 41 2.0 5.0 0.00 0.17 0.17 84 1008.9
20260509203552 59 41 2.0 5.0 0.00 0.17 0.17 84 1009.0
20260509203451 59 41 2.0 5.0 0.00 0.17 0.17 85 1008.9
20260509203413 59 41 2.0 5.0 0.00 0.17 0.17 85 1008.9
20260509203405 59 41 2.0 5.0 0.00 0.17 0.17 85 1008.9
20260509203152 59 41 2.0 5.0 0.00 0.17 0.17 85 1008.9
20260509203047 59 41 2.0 5.0 0.00 0.17 0.17 85 1009.0
20260509202948 59 41 2.0 5.0 0.00 0.17 0.17 85 1008.9
20260509202909 59 41 2.0 5.0 0.00 0.17 0.17 85 1008.9
20260509202902 59 41 2.0 5.0 0.00 0.17 0.17 85 1009.0
20260509202711 59 74 2.0 5.0 0.00 0.17 0.17 85 1008.9
20260509202703 59 41 2.0 5.0 0.00 0.17 0.17 85 1008.9
20260509202448 59 74 2.0 5.0 0.00 0.17 0.17 85 1008.9
20260509202349 59 74 2.0 5.0 0.00 0.17 0.17 85 1008.9
20260509202307 59 74 1.0 5.0 0.00 0.17 0.17 84 1008.8
20260509202259 59 74 1.0 5.0 0.00 0.17 0.17 85 1008.8
20260509202043 59 75 1.0 5.0 0.00 0.17 0.17 84 1008.8
20260509202004 59 109 1.0 5.0 0.00 0.17 0.17 84 1008.7
20260509201957 59 109 1.0 5.0 0.00 0.17 0.17 84 1008.7
20260509201744 59 109 1.0 5.0 0.00 0.17 0.17 84 1008.7
20260509201643 59 109 1.0 5.0 0.00 0.17 0.17 84 1008.6
20260509201559 59 109 1.0 5.0 0.00 0.17 0.17 84 1008.5
20260509201553 59 109 1.0 5.0 0.00 0.17 0.17 84 1008.5
20260509201339 59 109 1.0 5.0 0.00 0.17 0.17 84 1008.4
20260509201239 59 109 1.0 5.0 0.00 0.17 0.17 84 1008.4
20260509201139 59 109 1.0 5.0 0.00 0.17 0.17 84 1008.3
20260509201104 59 109 2.0 5.0 0.00 0.17 0.17 84 1008.3
20260509201056 59 109 2.0 5.0 0.00 0.17 0.17 84 1008.3
20260509200902 59 110 2.0 5.0 0.00 0.17 0.17 84 1008.5
20260509200854 59 109 2.0 5.0 0.00 0.17 0.17 84 1008.3
20260509200658 59 110 2.0 5.0 0.00 0.17 0.17 84 1008.5
20260509200650 59 110 2.0 5.0 0.00 0.17 0.17 84 1008.5
20260509200435 59 110 2.0 5.0 0.00 0.17 0.17 84 1008.6
20260509200336 59 111 2.0 5.0 0.00 0.17 0.17 84 1008.6
20260509200235 59 111 2.0 5.0 0.00 0.17 0.17 84 1008.6
20260509200138 59 111 1.0 5.0 0.00 0.17 0.17 83 1008.6
20260509200035 59 137 1.0 4.0 0.00 0.17 0.17 83 1008.6
20260509195936 59 138 1.0 4.0 0.00 0.17 0.17 83 1008.7
20260509195831 59 138 1.0 4.0 0.00 0.17 0.17 83 1008.8
20260509195734 59 138 0.0 4.0 0.00 0.17 0.17 82 1008.8
20260509195631 59 138 0.0 4.0 0.00 0.17 0.17 82 1008.9
20260509195531 59 138 0.0 4.0 0.00 0.17 0.17 82 1008.9
20260509195431 60 138 1.0 4.0 0.00 0.17 0.17 82 1009.0
20260509195353 60 138 1.0 4.0 0.00 0.17 0.17 82 1009.0
20260509195345 60 138 1.0 4.0 0.00 0.17 0.17 82 1009.0
20260509195148 60 138 1.0 4.0 0.00 0.17 0.17 81 1009.0
20260509195142 60 138 1.0 4.0 0.00 0.17 0.17 81 1009.0
20260509194927 60 138 1.0 4.0 0.00 0.17 0.17 81 1009.0
20260509194827 60 138 1.0 4.0 0.00 0.17 0.17 81 1009.0
20260509194727 60 138 1.0 4.0 0.00 0.17 0.17 81 1009.0
20260509194627 60 138 2.0 4.0 0.00 0.17 0.17 81 1009.0
20260509194528 60 138 2.0 4.0 0.00 0.17 0.17 81 1009.0
20260509194427 60 138 1.0 4.0 0.00 0.17 0.17 80 1009.0
20260509194328 60 139 1.0 4.0 0.00 0.17 0.17 80 1008.9
20260509194248 61 139 1.0 4.0 0.00 0.17 0.17 79 1008.9
20260509194241 60 139 1.0 4.0 0.00 0.17 0.17 80 1008.9
20260509194024 61 139 2.0 4.0 0.00 0.17 0.17 79 1008.9
20260509193924 61 139 2.0 4.0 0.00 0.17 0.17 79 1008.9
20260509193823 61 139 2.0 4.0 0.00 0.17 0.17 79 1008.9
20260509193724 61 139 2.0 3.0 0.00 0.17 0.17 79 1008.9
20260509193623 61 139 2.0 3.0 0.00 0.17 0.17 79 1008.9
20260509193547 61 168 1.0 3.0 0.00 0.17 0.17 80 1009.0
20260509193538 61 150 1.0 3.0 0.00 0.17 0.17 79 1008.9
20260509193320 61 168 1.0 3.0 0.00 0.17 0.17 80 1008.9
20260509193220 61 168 1.0 3.0 0.00 0.17 0.17 80 1009.0
20260509193120 61 168 1.0 3.0 0.00 0.17 0.17 81 1009.0
20260509193019 61 168 1.0 3.0 0.00 0.17 0.17 81 1009.1
20260509192942 61 168 1.0 6.0 0.00 0.17 0.17 80 1009.1
20260509192934 61 168 1.0 6.0 0.00 0.17 0.17 80 1009.1
20260509192721 61 168 1.0 6.0 0.00 0.17 0.17 80 1009.2
20260509192615 61 168 0.0 6.0 0.00 0.17 0.17 80 1009.2
20260509192515 61 137 0.0 6.0 0.00 0.17 0.17 80 1009.2
20260509192416 61 132 1.0 6.0 0.00 0.17 0.17 79 1009.2
20260509192315 61 128 1.0 6.0 0.00 0.17 0.17 79 1009.2
20260509192215 61 128 1.0 6.0 0.00 0.17 0.17 79 1009.2
20260509192117 61 128 1.0 6.0 0.00 0.17 0.17 79 1009.2
20260509192038 61 128 2.0 7.0 0.00 0.17 0.17 80 1009.2
20260509192031 61 128 2.0 6.0 0.00 0.17 0.17 79 1009.2
20260509191811 62 128 2.0 7.0 0.00 0.17 0.17 79 1009.2
20260509191711 62 128 3.0 7.0 0.00 0.17 0.17 81 1009.2
20260509191611 62 128 3.0 7.0 0.00 0.17 0.17 82 1009.2
20260509191534 62 128 3.0 7.0 0.00 0.17 0.17 82 1009.3
20260509191527 62 128 3.0 7.0 0.00 0.17 0.17 82 1009.2
20260509191312 62 127 3.0 7.0 0.00 0.17 0.17 83 1009.3
20260509191210 61 126 3.0 7.0 0.00 0.17 0.17 83 1009.3
20260509191114 61 126 3.0 7.0 0.00 0.17 0.17 84 1009.3
20260509191008 61 128 3.0 7.0 0.00 0.17 0.17 84 1009.3
20260509190931 61 130 2.0 7.0 0.00 0.17 0.17 83 1009.4
20260509190922 61 105 2.0 7.0 0.00 0.17 0.17 84 1009.3
20260509190708 61 132 2.0 7.0 0.00 0.17 0.17 83 1009.4
20260509190607 61 131 2.0 7.0 0.00 0.17 0.17 83 1009.4
20260509190507 60 131 2.0 7.0 0.00 0.17 0.17 83 1009.4
20260509190430 60 130 2.0 7.0 0.00 0.17 0.17 84 1009.5
20260509190423 60 130 2.0 7.0 0.00 0.17 0.17 83 1009.5
20260509190203 60 153 3.0 7.0 0.00 0.17 0.17 84 1009.6
20260509190148 60 157 3.0 7.0 0.00 0.17 0.17 85 1009.6
20260509190143 60 157 3.0 7.0 0.00 0.17 0.17 85 1009.6
20260509190133 60 158 3.0 7.0 0.00 0.17 0.17 85 1009.6
20260509185803 60 156 3.0 7.0 0.00 0.17 0.17 85 1009.7
20260509185704 60 157 3.0 7.0 0.00 0.17 0.17 85 1009.7
20260509185604 60 157 3.0 7.0 0.00 0.17 0.17 85 1009.7
20260509185504 60 157 3.0 7.0 0.00 0.17 0.17 85 1009.7
20260509185359 59 154 4.0 7.0 0.00 0.17 0.17 85 1009.6
20260509185321 59 126 3.0 6.0 0.00 0.17 0.17 85 1009.6
20260509185314 59 144 3.0 7.0 0.00 0.17 0.17 85 1009.6
20260509185122 59 163 3.0 6.0 0.00 0.17 0.17 85 1009.8
20260509185115 59 141 3.0 6.0 0.00 0.17 0.17 85 1009.6
20260509184900 59 163 3.0 6.0 0.00 0.17 0.17 85 1009.8
20260509184759 59 165 3.0 6.0 0.00 0.17 0.17 85 1009.9
20260509184700 59 180 2.0 6.0 0.00 0.17 0.17 85 1009.8
20260509184600 59 172 2.0 6.0 0.00 0.17 0.17 85 1009.9
20260509184500 59 171 2.0 6.0 0.00 0.17 0.17 85 1009.9
20260509184400 59 110 2.0 6.0 0.00 0.17 0.17 85 1009.8
20260509184255 59 109 2.0 6.0 0.00 0.17 0.17 85 1009.8
20260509184155 59 105 2.0 6.0 0.00 0.17 0.17 85 1009.8
20260509184056 59 89 2.0 6.0 0.00 0.17 0.17 85 1009.8
20260509183951 59 100 2.0 7.0 0.00 0.17 0.17 85 1009.8
20260509183913 59 98 2.0 7.0 0.00 0.17 0.17 85 1009.8
20260509183905 59 99 2.0 7.0 0.00 0.17 0.17 85 1009.7
20260509183652 60 98 2.0 7.0 0.00 0.17 0.17 85 1009.7
20260509183550 60 98 3.0 7.0 0.00 0.17 0.17 85 1009.7
20260509183451 60 97 3.0 7.0 0.00 0.17 0.17 85 1009.6
20260509183351 60 119 3.0 7.0 0.00 0.17 0.17 85 1009.7
20260509183252 60 127 3.0 7.0 0.00 0.17 0.17 86 1009.7
20260509183148 60 127 3.0 7.0 0.00 0.17 0.17 86 1009.7
20260509183047 60 127 3.0 7.0 0.00 0.17 0.17 87 1009.7
20260509182948 59 125 4.0 7.0 0.00 0.17 0.17 87 1009.7
20260509182909 59 133 3.0 7.0 0.00 0.17 0.17 87 1009.6
20260509182903 59 123 4.0 7.0 0.00 0.17 0.17 87 1009.6
20260509182648 59 138 3.0 7.0 0.00 0.17 0.17 87 1009.6
20260509182547 59 117 3.0 7.0 0.00 0.17 0.17 86 1009.6
20260509182448 59 103 3.0 7.0 0.00 0.17 0.17 86 1009.6
20260509182343 59 127 3.0 7.0 0.00 0.17 0.17 87 1009.6
20260509182244 59 127 3.0 7.0 0.00 0.17 0.17 87 1009.6
20260509182143 59 128 3.0 7.0 0.00 0.17 0.17 87 1009.6
20260509182105 58 138 2.0 6.0 0.00 0.17 0.17 87 1009.6
20260509182058 59 136 3.0 7.0 0.00 0.17 0.17 87 1009.6
20260509181844 58 140 2.0 6.0 0.00 0.17 0.17 88 1009.6
20260509181743 58 140 2.0 6.0 0.00 0.17 0.17 87 1009.6
20260509181644 58 146 2.0 5.0 0.00 0.17 0.17 87 1009.5
20260509181539 58 145 2.0 5.0 0.00 0.17 0.17 87 1009.6
20260509181439 58 146 2.0 5.0 0.00 0.17 0.17 88 1009.5
20260509181339 58 146 3.0 5.0 0.00 0.17 0.17 88 1009.6
20260509181240 57 148 3.0 5.0 0.00 0.17 0.17 88 1009.6
20260509181202 57 127 2.0 5.0 0.00 0.17 0.17 88 1009.6
20260509181154 57 126 2.0 5.0 0.00 0.17 0.17 88 1009.6
20260509180939 57 129 2.0 5.0 0.00 0.17 0.17 88 1009.6
20260509180857 57 126 2.0 5.0 0.00 0.17 0.17 88 1009.7
20260509180849 57 130 2.0 5.0 0.00 0.17 0.17 88 1009.7
20260509180637 57 126 2.0 5.0 0.00 0.17 0.17 88 1009.7
20260509180535 57 156 2.0 5.0 0.00 0.17 0.17 88 1009.7
20260509180436 57 187 1.0 3.0 0.00 0.17 0.17 88 1009.7
20260509180335 57 189 1.0 3.0 0.00 0.17 0.17 87 1009.7
20260509180235 57 190 1.0 3.0 0.00 0.17 0.17 87 1009.7
20260509180134 57 190 1.0 2.0 0.00 0.17 0.17 87 1009.8
20260509180036 56 190 1.0 2.0 0.00 0.17 0.17 87 1009.8
20260509175955 56 190 0.0 3.0 0.00 0.17 0.17 87 1009.8
20260509175946 56 191 1.0 3.0 0.00 0.17 0.17 87 1009.8
20260509175753 56 191 0.0 3.0 0.00 0.17 0.17 87 1009.8
20260509175746 56 191 0.0 3.0 0.00 0.17 0.17 87 1009.8
20260509175531 56 191 0.0 3.0 0.00 0.17 0.17 87 1009.8
20260509175431 56 190 0.0 3.0 0.00 0.17 0.17 87 1009.8
20260509175331 56 191 0.0 3.0 0.00 0.17 0.17 87 1009.8
20260509175233 56 192 0.0 3.0 0.00 0.17 0.17 87 1009.8
20260509175127 56 191 1.0 3.0 0.00 0.17 0.17 87 1009.9
20260509175028 56 191 1.0 3.0 0.00 0.17 0.17 87 1009.9
20260509174926 56 191 1.0 3.0 0.00 0.17 0.17 88 1009.9
20260509174828 56 191 1.0 3.0 0.00 0.17 0.17 88 1009.9
20260509174751 56 191 1.0 5.0 0.00 0.17 0.17 87 1010.0
20260509174743 56 191 1.0 3.0 0.00 0.17 0.17 88 1010.0
20260509174527 56 190 1.0 5.0 0.00 0.17 0.17 87 1009.9
20260509174446 55 190 2.0 5.0 0.00 0.17 0.17 87 1010.0
20260509174439 55 190 2.0 5.0 0.00 0.17 0.17 87 1010.0
20260509174224 55 190 2.0 5.0 0.00 0.17 0.17 87 1010.0
20260509174123 55 190 2.0 5.0 0.00 0.17 0.17 87 1010.0
20260509174024 55 190 2.0 5.0 0.00 0.17 0.17 87 1010.0
20260509173945 55 191 2.0 5.0 0.00 0.17 0.17 87 1010.1
20260509173937 55 190 2.0 5.0 0.00 0.17 0.17 87 1010.1
20260509173724 55 190 2.0 5.0 0.00 0.17 0.17 87 1010.2
20260509173624 55 190 2.0 5.0 0.00 0.17 0.17 87 1010.2
20260509173520 55 188 2.0 5.0 0.00 0.17 0.17 87 1010.1
20260509173420 55 180 2.0 5.0 0.00 0.17 0.17 87 1010.2
20260509173320 55 180 2.0 6.0 0.00 0.17 0.17 87 1010.2
20260509173218 55 179 2.0 6.0 0.00 0.17 0.17 87 1010.2
20260509173140 55 178 2.0 6.0 0.00 0.17 0.17 87 1010.3
20260509173133 55 178 2.0 6.0 0.00 0.17 0.17 87 1010.2
20260509172919 55 178 2.0 6.0 0.00 0.17 0.17 87 1010.3
20260509172820 55 178 2.0 6.0 0.00 0.17 0.17 87 1010.2
20260509172714 55 177 2.0 6.0 0.00 0.17 0.17 87 1010.2
20260509172636 55 175 2.0 6.0 0.01 0.17 0.17 87 1010.2
20260509172629 55 175 2.0 6.0 0.01 0.17 0.17 87 1010.2
20260509172436 55 173 2.0 6.0 0.01 0.17 0.17 87 1010.3
20260509172429 55 175 2.0 6.0 0.01 0.17 0.17 87 1010.2
20260509172216 55 173 2.0 6.0 0.01 0.17 0.17 87 1010.3
20260509172115 55 172 2.0 6.0 0.01 0.17 0.17 87 1010.3
20260509172016 55 172 2.0 6.0 0.01 0.17 0.17 87 1010.3
20260509171911 55 173 2.0 6.0 0.01 0.17 0.17 87 1010.3
20260509171812 55 173 2.0 6.0 0.01 0.17 0.17 87 1010.3
20260509171711 55 173 2.0 6.0 0.01 0.17 0.17 87 1010.3
20260509171612 55 172 2.0 6.0 0.01 0.17 0.17 87 1010.3
20260509171511 55 171 2.0 6.0 0.01 0.17 0.17 87 1010.3
20260509171435 55 180 2.0 5.0 0.01 0.17 0.17 87 1010.3
20260509171427 55 171 2.0 6.0 0.01 0.17 0.17 87 1010.3
20260509171213 55 180 2.0 5.0 0.01 0.17 0.17 87 1010.3
20260509171108 55 180 2.0 5.0 0.01 0.17 0.17 87 1010.4
20260509171007 55 180 2.0 5.0 0.01 0.17 0.17 87 1010.5
20260509170907 55 180 2.0 5.0 0.01 0.17 0.17 87 1010.5
20260509170808 55 180 2.0 5.0 0.01 0.17 0.17 87 1010.6
20260509170728 55 181 2.0 5.0 0.02 0.17 0.17 87 1010.4
20260509170721 55 180 2.0 5.0 0.02 0.17 0.17 87 1010.5
20260509170507 55 180 2.0 5.0 0.02 0.17 0.17 87 1010.4
20260509170408 55 178 2.0 5.0 0.02 0.17 0.17 87 1010.5
20260509170302 55 179 2.0 5.0 0.02 0.17 0.17 87 1010.5
20260509170204 55 178 2.0 5.0 0.02 0.17 0.17 86 1010.4
20260509170104 54 178 2.0 5.0 0.02 0.17 0.17 86 1010.5
20260509170003 54 179 3.0 5.0 0.02 0.17 0.17 87 1010.5
20260509165903 54 178 3.0 5.0 0.02 0.17 0.17 87 1010.4
20260509165803 54 178 3.0 5.0 0.02 0.17 0.17 87 1010.4
20260509165703 54 177 3.0 5.0 0.03 0.17 0.17 87 1010.4
20260509165624 54 173 3.0 5.0 0.03 0.17 0.17 87 1010.3
20260509165617 54 175 3.0 5.0 0.03 0.17 0.17 87 1010.3
20260509165359 54 172 3.0 5.0 0.03 0.17 0.17 87 1010.3
20260509165320 54 171 3.0 5.0 0.03 0.17 0.17 87 1010.3
20260509165313 54 172 3.0 5.0 0.03 0.17 0.17 87 1010.3
20260509165058 54 171 3.0 5.0 0.04 0.17 0.17 87 1010.3
20260509164959 54 170 3.0 5.0 0.04 0.17 0.17 87 1010.2
20260509164900 54 170 3.0 5.0 0.04 0.17 0.17 87 1010.2
20260509164817 54 171 2.0 8.0 0.04 0.17 0.17 87 1010.3
20260509164810 54 171 2.0 5.0 0.04 0.17 0.17 87 1010.3
20260509164555 54 171 2.0 8.0 0.05 0.17 0.17 87 1010.2
20260509164455 54 171 3.0 8.0 0.05 0.17 0.17 87 1010.2
20260509164356 54 170 3.0 8.0 0.05 0.17 0.17 87 1010.2
20260509164255 54 169 3.0 8.0 0.05 0.17 0.17 87 1010.2
20260509164155 54 168 3.0 8.0 0.06 0.17 0.17 87 1010.2
20260509164056 54 162 3.0 8.0 0.06 0.17 0.17 87 1010.2
20260509164013 54 161 3.0 8.0 0.07 0.17 0.17 86 1010.2
20260509164007 54 162 3.0 8.0 0.06 0.17 0.17 87 1010.2
20260509163752 54 157 4.0 8.0 0.07 0.17 0.17 87 1010.1
20260509163652 54 157 4.0 8.0 0.07 0.17 0.17 87 1010.0
20260509163551 54 153 4.0 8.0 0.07 0.17 0.17 87 1009.9
20260509163450 54 151 4.0 8.0 0.07 0.17 0.17 87 1009.9
20260509163352 54 150 4.0 8.0 0.08 0.17 0.17 87 1010.0
20260509163252 53 134 4.0 8.0 0.08 0.17 0.17 87 1009.9
20260509163152 53 133 4.0 8.0 0.09 0.17 0.17 87 1009.9
20260509163048 54 152 4.0 8.0 0.09 0.17 0.17 87 1009.9
20260509162948 54 161 4.0 8.0 0.09 0.17 0.17 87 1009.8
20260509162909 54 159 3.0 8.0 0.10 0.17 0.17 87 1009.9
20260509162902 54 161 4.0 8.0 0.10 0.17 0.17 87 1009.8
20260509162646 54 170 3.0 7.0 0.09 0.16 0.17 87 1009.9
20260509162609 53 161 2.0 6.0 0.10 0.16 0.16 87 1009.9
20260509162602 53 154 3.0 6.0 0.10 0.16 0.16 87 1010.0
20260509162348 53 162 2.0 5.0 0.10 0.16 0.16 87 1010.0
20260509162243 53 103 2.0 6.0 0.10 0.16 0.16 87 1009.9
20260509162205 53 57 3.0 6.0 0.11 0.16 0.16 87 1009.8
20260509162157 53 90 2.0 6.0 0.11 0.16 0.16 87 1009.9
20260509161944 53 56 3.0 6.0 0.11 0.16 0.16 87 1009.8
20260509161842 53 53 3.0 6.0 0.11 0.16 0.16 87 1009.7
20260509161743 53 52 3.0 6.0 0.12 0.16 0.16 87 1009.7
20260509161642 53 52 3.0 6.0 0.12 0.16 0.16 87 1009.7
20260509161544 53 52 3.0 6.0 0.12 0.16 0.16 88 1009.7
20260509161440 53 52 3.0 6.0 0.12 0.16 0.16 88 1009.7
20260509161338 53 46 3.0 5.0 0.12 0.16 0.16 88 1009.7
20260509161240 53 60 3.0 5.0 0.12 0.16 0.16 88 1009.7
20260509161139 53 62 3.0 6.0 0.13 0.16 0.16 88 1009.8
20260509161101 53 65 3.0 6.0 0.13 0.16 0.16 88 1009.8
20260509161053 53 65 3.0 6.0 0.13 0.16 0.16 88 1009.8
20260509160838 53 65 3.0 6.0 0.13 0.16 0.16 88 1009.8
20260509160740 53 64 3.0 6.0 0.12 0.15 0.15 88 1009.9
20260509160635 53 64 3.0 6.0 0.12 0.15 0.15 88 1009.9
20260509160536 53 64 3.0 6.0 0.12 0.15 0.15 88 1009.9
20260509160435 53 65 3.0 6.0 0.12 0.15 0.15 88 1009.9
20260509160335 53 64 3.0 6.0 0.12 0.15 0.15 88 1009.9
20260509160235 53 80 3.0 6.0 0.12 0.15 0.15 88 1009.9
20260509160136 53 89 2.0 6.0 0.12 0.15 0.15 88 1010.0
20260509160114 53 150 2.0 4.0 0.13 0.15 0.15 88 1010.1
20260509160111 53 149 2.0 4.0 0.13 0.15 0.15 88 1010.1
20260509160101 53 92 2.0 6.0 0.12 0.15 0.15 88 1010.0
20260509155731 53 149 2.0 4.0 0.13 0.15 0.15 88 1010.2
20260509155631 53 168 1.0 4.0 0.12 0.14 0.15 88 1010.2
20260509155553 53 186 1.0 3.0 0.12 0.14 0.14 88 1010.3
20260509155546 53 186 1.0 3.0 0.12 0.14 0.14 88 1010.3
20260509155330 53 186 1.0 3.0 0.12 0.14 0.14 88 1010.4
20260509155231 53 187 1.0 3.0 0.12 0.14 0.14 88 1010.4
20260509155131 53 186 1.0 3.0 0.12 0.14 0.14 88 1010.5
20260509155027 53 187 1.0 3.0 0.11 0.13 0.13 88 1010.6
20260509154951 53 187 1.0 5.0 0.11 0.13 0.13 88 1010.7
20260509154943 53 187 1.0 3.0 0.11 0.13 0.13 88 1010.6
20260509154727 53 187 1.0 5.0 0.11 0.13 0.13 88 1010.8
20260509154626 53 187 1.0 5.0 0.10 0.12 0.13 88 1010.8
20260509154527 53 188 1.0 5.0 0.10 0.12 0.12 88 1010.8
20260509154427 53 188 1.0 5.0 0.11 0.12 0.12 88 1010.9
20260509154328 53 189 1.0 5.0 0.11 0.12 0.12 87 1010.9
20260509154224 53 189 1.0 5.0 0.10 0.11 0.12 87 1010.9
20260509154123 53 190 1.0 5.0 0.10 0.11 0.11 87 1010.9
20260509154024 53 190 1.0 5.0 0.10 0.11 0.11 87 1010.9
20260509153924 53 190 1.0 5.0 0.10 0.11 0.11 87 1010.9
20260509153824 53 190 2.0 5.0 0.09 0.10 0.11 87 1011.0
20260509153723 53 190 2.0 5.0 0.09 0.10 0.10 87 1011.0
20260509153623 54 189 2.0 5.0 0.10 0.10 0.10 87 1011.0
20260509153524 54 190 2.0 5.0 0.10 0.10 0.10 87 1011.1
20260509153420 54 194 2.0 5.0 0.09 0.09 0.09 87 1011.1
20260509153318 54 192 2.0 5.0 0.09 0.09 0.09 87 1011.1
20260509153219 54 188 2.0 5.0 0.09 0.09 0.09 87 1011.1
20260509153120 54 188 2.0 5.0 0.08 0.08 0.09 87 1011.2
20260509153019 54 189 2.0 5.0 0.08 0.08 0.08 87 1011.2
20260509152942 54 190 2.0 4.0 0.07 0.07 0.08 87 1011.2
20260509152935 54 190 2.0 5.0 0.08 0.08 0.08 87 1011.3
20260509152740 54 193 3.0 4.0 0.06 0.06 0.07 87 1011.2
20260509152732 54 194 3.0 4.0 0.07 0.07 0.07 87 1011.2
20260509152514 54 196 3.0 4.0 0.06 0.06 0.06 86 1011.3
20260509152417 54 198 3.0 4.0 0.06 0.06 0.06 86 1011.3
20260509152315 54 196 2.0 4.0 0.06 0.06 0.06 86 1011.3
20260509152215 54 196 2.0 4.0 0.05 0.05 0.06 86 1011.3
20260509152116 54 197 2.0 4.0 0.05 0.05 0.05 86 1011.2
20260509152016 55 198 2.0 4.0 0.05 0.05 0.05 86 1011.2
20260509151916 55 198 2.0 4.0 0.05 0.05 0.05 86 1011.2
20260509151834 55 203 2.0 4.0 0.04 0.04 0.04 86 1011.1
20260509151826 55 202 2.0 4.0 0.05 0.05 0.05 86 1011.2
20260509151555 55 205 1.0 4.0 0.04 0.04 0.04 86 1011.1
20260509151514 55 205 1.0 4.0 0.03 0.03 0.03 86 1010.9
20260509151508 55 205 1.0 4.0 0.04 0.04 0.04 86 1011.0
20260509151502 55 205 1.0 4.0 0.04 0.04 0.04 86 1011.1
20260509151447 55 205 1.0 4.0 0.04 0.04 0.04 86 1011.1
20260509151328 55 205 1.0 4.0 0.04 0.04 0.04 86 1011.0
20260509151018 55 209 2.0 4.0 0.03 0.03 0.03 86 1010.9
20260509151010 55 208 2.0 4.0 0.03 0.03 0.03 86 1010.9
20260509150752 55 209 2.0 4.0 0.03 0.03 0.03 86 1010.9
20260509150714 55 209 2.0 4.0 0.03 0.03 0.03 86 1011.0
20260509150706 55 209 2.0 4.0 0.03 0.03 0.03 86 1011.0
20260509150452 55 211 2.0 4.0 0.03 0.03 0.03 86 1010.9
20260509150350 55 211 2.0 4.0 0.03 0.03 0.03 86 1011.0
20260509150251 55 211 2.0 4.0 0.03 0.03 0.03 86 1011.0
20260509150152 55 211 2.0 4.0 0.03 0.03 0.03 86 1010.9
20260509150053 55 211 2.0 4.0 0.03 0.03 0.03 86 1011.0
20260509150009 55 209 2.0 4.0 0.02 0.02 0.02 86 1010.9
20260509150002 55 209 2.0 4.0 0.02 0.02 0.03 86 1010.9
20260509145747 55 208 3.0 4.0 0.02 0.02 0.02 86 1010.9
20260509145648 55 207 3.0 4.0 0.02 0.02 0.02 85 1011.0
20260509145547 56 207 2.0 4.0 0.02 0.02 0.02 85 1011.0
20260509145447 56 207 2.0 4.0 0.02 0.02 0.02 85 1010.9
20260509145347 56 205 2.0 4.0 0.02 0.02 0.02 85 1010.9
20260509145249 56 202 2.0 4.0 0.02 0.02 0.02 85 1010.8
20260509145143 56 201 2.0 4.0 0.02 0.02 0.02 85 1010.8
20260509145044 56 201 2.0 4.0 0.02 0.02 0.02 85 1010.8
20260509145004 56 200 2.0 4.0 0.02 0.02 0.02 85 1010.8
20260509144957 56 201 2.0 4.0 0.02 0.02 0.02 85 1010.8
20260509144742 56 201 1.0 3.0 0.02 0.02 0.02 85 1010.8
20260509144651 56 189 1.0 4.0 0.01 0.01 0.01 84 1010.8
20260509144647 56 200 1.0 3.0 0.02 0.02 0.02 84 1010.7
20260509144631 56 200 1.0 4.0 0.02 0.02 0.02 84 1010.7
20260509144518 56 189 1.0 4.0 0.01 0.01 0.01 84 1010.8
20260509144510 56 189 1.0 4.0 0.01 0.01 0.02 84 1010.7
20260509144139 56 178 1.0 4.0 0.01 0.01 0.01 84 1010.7
20260509144102 56 180 1.0 4.0 0.01 0.01 0.01 84 1010.7
20260509144055 56 179 1.0 4.0 0.01 0.01 0.01 84 1010.8
20260509143902 56 173 1.0 4.0 0.01 0.01 0.01 84 1010.7
20260509143855 56 179 1.0 4.0 0.01 0.01 0.01 84 1010.7
20260509143641 56 172 2.0 4.0 0.00 0.00 0.01 84 1010.7
20260509143547 56 166 1.0 4.0 0.00 0.00 0.00 84 1010.7
20260509143542 56 166 2.0 4.0 0.00 0.00 0.00 84 1010.7
20260509143537 56 165 2.0 4.0 0.00 0.00 0.00 84 1010.7
20260509143521 56 165 2.0 4.0 0.00 0.00 0.00 84 1010.7
20260509143403 56 167 2.0 4.0 0.00 0.00 0.00 84 1010.7
20260509143121 56 153 1.0 4.0 0.00 0.00 0.00 84 1010.7
20260509143110 56 161 1.0 4.0 0.00 0.00 0.00 84 1010.7
20260509142950 56 152 1.0 4.0 0.00 0.00 0.00 84 1010.7
20260509142732 56 152 1.0 4.0 0.00 0.00 0.00 85 1010.7
20260509142633 56 152 1.0 3.0 0.00 0.00 0.00 85 1010.6
20260509142532 56 152 1.0 3.0 0.00 0.00 0.00 85 1010.6
20260509142431 56 152 1.0 3.0 0.00 0.00 0.00 85 1010.6
20260509142415 56 152 1.0 3.0 0.00 0.00 0.00 85 1010.6
20260509142410 56 152 1.0 3.0 0.00 0.00 0.00 85 1010.6
20260509142400 56 152 1.0 3.0 0.00 0.00 0.00 85 1010.6
20260509142032 56 152 1.0 3.0 0.00 0.00 0.00 85 1010.6
20260509141949 55 152 1.0 5.0 0.00 0.00 0.00 85 1010.6
20260509141942 55 152 1.0 3.0 0.00 0.00 0.00 85 1010.6
20260509141728 55 152 1.0 5.0 0.00 0.00 0.00 85 1010.6
20260509141629 55 152 1.0 5.0 0.00 0.00 0.00 85 1010.6
20260509141527 55 152 1.0 5.0 0.00 0.00 0.00 85 1010.6
20260509141428 55 152 1.0 5.0 0.00 0.00 0.00 85 1010.6
20260509141329 55 152 1.0 5.0 0.00 0.00 0.00 85 1010.6
20260509141228 55 152 1.0 5.0 0.00 0.00 0.00 85 1010.6
20260509141123 55 152 1.0 5.0 0.00 0.00 0.00 85 1010.6
20260509141022 55 152 1.0 5.0 0.00 0.00 0.00 85 1010.6
20260509140923 55 152 1.0 5.0 0.00 0.00 0.00 85 1010.5
20260509140824 55 152 2.0 5.0 0.00 0.00 0.00 85 1010.5
20260509140722 55 152 2.0 5.0 0.00 0.00 0.00 85 1010.5
20260509140624 55 152 2.0 5.0 0.00 0.00 0.00 85 1010.5
20260509140523 55 152 2.0 5.0 0.00 0.00 0.00 85 1010.5
20260509140424 55 152 2.0 5.0 0.00 0.00 0.00 85 1010.4
20260509140319 55 152 2.0 5.0 0.00 0.00 0.00 85 1010.5
20260509140222 55 152 2.0 5.0 0.00 0.00 0.00 85 1010.5
20260509140119 55 152 2.0 5.0 0.00 0.00 0.00 86 1010.4
20260509140020 55 152 2.0 5.0 0.00 0.00 0.00 86 1010.4
20260509135919 55 152 2.0 5.0 0.00 0.00 0.00 86 1010.4
20260509135821 54 158 2.0 4.0 0.00 0.00 0.00 86 1010.4
20260509135742 54 158 2.0 4.0 0.00 0.00 0.00 86 1010.5
20260509135734 54 158 2.0 4.0 0.00 0.00 0.00 86 1010.5
20260509135514 54 158 1.0 4.0 0.00 0.00 0.00 86 1010.4
20260509135417 54 158 1.0 4.0 0.00 0.00 0.00 86 1010.4
20260509135316 54 159 1.0 4.0 0.00 0.00 0.00 86 1010.4
20260509135214 54 159 1.0 4.0 0.00 0.00 0.00 86 1010.4
20260509135114 54 159 1.0 4.0 0.00 0.00 0.00 86 1010.4
20260509135016 54 159 0.0 4.0 0.00 0.00 0.00 86 1010.4
20260509134914 54 159 0.0 4.0 0.00 0.00 0.00 86 1010.4
20260509134816 54 159 1.0 4.0 0.00 0.00 0.00 86 1010.3
20260509134711 54 159 1.0 4.0 0.00 0.00 0.00 86 1010.3
20260509134632 54 159 1.0 4.0 0.00 0.00 0.00 86 1010.3
20260509134626 54 159 1.0 4.0 0.00 0.00 0.00 86 1010.3
20260509134424 53 159 2.0 5.0 0.00 0.00 0.00 87 1010.3
20260509134419 53 159 2.0 5.0 0.00 0.00 0.00 87 1010.2
20260509134414 54 159 2.0 4.0 0.00 0.00 0.00 87 1010.3
20260509134358 54 159 2.0 4.0 0.00 0.00 0.00 87 1010.3
20260509134241 54 159 2.0 5.0 0.00 0.00 0.00 87 1010.3
20260509133906 53 159 2.0 5.0 0.00 0.00 0.00 87 1010.3
20260509133808 53 159 2.0 5.0 0.00 0.00 0.00 86 1010.3
20260509133750 53 160 2.0 5.0 0.00 0.00 0.00 86 1010.4
20260509133739 53 159 2.0 5.0 0.00 0.00 0.00 86 1010.3
20260509133621 53 159 2.0 5.0 0.00 0.00 0.00 86 1010.3
20260509133430 53 160 2.0 5.0 0.00 0.00 0.00 86 1010.4
20260509133423 53 160 2.0 5.0 0.00 0.00 0.00 86 1010.4
20260509133208 53 160 2.0 5.0 0.00 0.00 0.00 86 1010.4
20260509133146 53 160 2.0 5.0 0.00 0.00 0.00 86 1010.4
20260509133138 53 160 2.0 5.0 0.00 0.00 0.00 86 1010.4
20260509133017 53 160 2.0 5.0 0.00 0.00 0.00 86 1010.4
20260509132803 53 160 2.0 5.0 0.00 0.00 0.00 86 1010.4
20260509132703 53 160 2.0 5.0 0.00 0.00 0.00 86 1010.4
20260509132602 53 160 2.0 5.0 0.00 0.00 0.00 86 1010.4
20260509132504 53 160 2.0 5.0 0.00 0.00 0.00 86 1010.4
20260509132404 53 128 2.0 5.0 0.00 0.00 0.00 86 1010.4
20260509132259 53 128 2.0 5.0 0.00 0.00 0.00 86 1010.4
20260509132200 53 128 2.0 5.0 0.00 0.00 0.00 86 1010.4
20260509132058 53 127 2.0 5.0 0.00 0.00 0.00 86 1010.3
20260509132043 53 127 2.0 5.0 0.00 0.00 0.00 86 1010.3
20260509132032 53 127 2.0 5.0 0.00 0.00 0.00 86 1010.3
20260509131913 53 127 2.0 5.0 0.00 0.00 0.00 86 1010.3
20260509131700 53 127 2.0 5.0 0.00 0.00 0.00 86 1010.3
20260509131600 53 124 2.0 5.0 0.00 0.00 0.00 86 1010.3
20260509131455 53 124 2.0 5.0 0.00 0.00 0.00 86 1010.3
20260509131355 53 123 2.0 10.0 0.00 0.00 0.00 86 1010.3
20260509131255 53 84 2.0 10.0 0.00 0.00 0.00 86 1010.2
20260509131155 53 77 2.0 10.0 0.00 0.00 0.00 86 1010.2
20260509131055 53 75 2.0 10.0 0.00 0.00 0.00 86 1010.1
20260509131024 53 92 4.0 10.0 0.00 0.00 0.00 85 1009.8
20260509131019 53 74 3.0 10.0 0.00 0.00 0.00 86 1009.9
20260509131013 53 74 3.0 10.0 0.00 0.00 0.00 86 1010.1
20260509130957 53 74 3.0 10.0 0.00 0.00 0.00 86 1010.0
20260509130723 53 78 3.0 10.0 0.00 0.00 0.00 85 1009.8
20260509130605 53 90 3.0 10.0 0.00 0.00 0.00 85 1009.8
20260509130351 53 99 4.0 10.0 0.00 0.00 0.00 85 1009.8
20260509130251 53 99 4.0 10.0 0.00 0.00 0.00 85 1009.8
20260509130150 53 103 4.0 10.0 0.00 0.00 0.00 85 1010.0
20260509130135 53 96 4.0 10.0 0.00 0.00 0.00 85 1010.0
20260509130129 53 96 4.0 10.0 0.00 0.00 0.00 85 1010.0
20260509130119 53 97 4.0 10.0 0.00 0.00 0.00 85 1010.0
20260509125809 53 132 3.0 10.0 0.00 0.00 0.00 85 1010.0
20260509125801 53 118 3.0 10.0 0.00 0.00 0.00 85 1010.0
20260509125548 53 134 4.0 10.0 0.00 0.00 0.00 85 1010.1
20260509125447 53 133 3.0 10.0 0.00 0.00 0.00 85 1010.1
20260509125347 53 142 3.0 7.0 0.00 0.00 0.00 85 1010.1
20260509125247 53 90 3.0 7.0 0.00 0.00 0.00 85 1010.0
20260509125148 53 61 3.0 7.0 0.00 0.00 0.00 85 1009.9
20260509125043 53 60 3.0 7.0 0.00 0.00 0.00 85 1009.8
20260509124944 53 34 3.0 7.0 0.00 0.00 0.00 85 1009.7
20260509124843 53 34 3.0 7.0 0.00 0.00 0.00 85 1009.7
20260509124744 53 32 3.0 7.0 0.00 0.00 0.00 85 1009.7
20260509124643 53 32 3.0 7.0 0.00 0.00 0.00 85 1009.7
20260509124544 53 0 3.0 7.0 0.00 0.00 0.00 85 1009.8
20260509124442 53 355 3.0 7.0 0.00 0.00 0.00 85 1009.8
20260509124344 53 355 3.0 7.0 0.00 0.00 0.00 85 1009.8
20260509124238 53 355 3.0 7.0 0.00 0.00 0.00 85 1009.9
20260509124140 53 355 3.0 7.0 0.00 0.00 0.00 85 1009.9
20260509124039 53 343 3.0 7.0 0.00 0.00 0.00 85 1009.9
20260509123940 53 344 3.0 7.0 0.00 0.00 0.00 85 1009.9
20260509123900 53 342 3.0 7.0 0.00 0.00 0.00 85 1010.0
20260509123852 53 342 3.0 7.0 0.00 0.00 0.00 85 1010.0
20260509123639 53 0 3.0 5.0 0.00 0.00 0.00 85 1010.0
20260509123540 53 5 3.0 4.0 0.00 0.00 0.00 85 1010.1
20260509123458 53 16 2.0 4.0 0.00 0.00 0.00 84 1010.1
20260509123452 53 16 2.0 4.0 0.00 0.00 0.00 84 1010.1
20260509123236 53 16 2.0 4.0 0.00 0.00 0.00 84 1010.2
20260509123135 53 16 2.0 4.0 0.00 0.00 0.00 84 1010.2
20260509123035 53 17 2.0 4.0 0.00 0.00 0.00 84 1010.1
20260509122934 53 17 1.0 4.0 0.00 0.00 0.00 84 1010.2
20260509122835 53 17 1.0 3.0 0.00 0.00 0.00 84 1010.2
20260509122757 53 17 1.0 3.0 0.00 0.00 0.00 85 1010.3
20260509122749 53 17 1.0 3.0 0.00 0.00 0.00 84 1010.2
20260509122600 53 17 1.0 3.0 0.00 0.00 0.00 84 1010.3
20260509122551 53 17 1.0 3.0 0.00 0.00 0.00 85 1010.3
20260509122358 53 17 1.0 3.0 0.00 0.00 0.00 84 1010.2
20260509122350 53 17 1.0 3.0 0.00 0.00 0.00 84 1010.2
20260509122135 52 17 1.0 3.0 0.00 0.00 0.00 84 1010.2
20260509122036 52 17 1.0 3.0 0.00 0.00 0.00 84 1010.2
20260509121935 52 17 1.0 3.0 0.00 0.00 0.00 84 1010.2
20260509121921 52 19 1.0 2.0 0.00 0.00 0.00 85 1010.2
20260509121910 52 17 1.0 3.0 0.00 0.00 0.00 84 1010.1
20260509121751 52 17 1.0 3.0 0.00 0.00 0.00 84 1010.2
20260509121557 52 46 1.0 3.0 0.00 0.00 0.00 85 1010.2
20260509121550 52 46 1.0 2.0 0.00 0.00 0.00 85 1010.2
20260509121417 52 46 0.0 3.0 0.00 0.00 0.00 85 1010.1
20260509121412 52 46 1.0 3.0 0.00 0.00 0.00 85 1010.1
20260509121402 52 46 1.0 3.0 0.00 0.00 0.00 85 1010.1
20260509121114 52 45 1.0 3.0 0.00 0.00 0.00 85 1010.1
20260509121108 52 45 2.0 4.0 0.00 0.00 0.00 85 1010.1
20260509121104 52 45 2.0 4.0 0.00 0.00 0.00 86 1010.0
20260509121059 52 45 1.0 3.0 0.00 0.00 0.00 85 1010.2
20260509121049 52 45 1.0 3.0 0.00 0.00 0.00 85 1010.1
20260509120917 52 45 1.0 3.0 0.00 0.00 0.00 85 1010.2
20260509120807 52 45 2.0 4.0 0.00 0.00 0.00 85 1010.1
20260509120755 52 45 1.0 3.0 0.00 0.00 0.00 85 1010.1
20260509120520 52 46 1.0 3.0 0.00 0.00 0.00 85 1010.1
20260509120502 52 46 1.0 4.0 0.00 0.00 0.00 85 1010.2
20260509120343 52 45 1.0 4.0 0.00 0.00 0.00 85 1010.2
20260509115855 52 45 2.0 4.0 0.00 0.00 0.00 86 1010.0
20260509115748 52 44 2.0 4.0 0.00 0.00 0.00 85 1010.0
20260509115649 52 44 2.0 4.0 0.00 0.00 0.00 85 1010.0
20260509115543 52 44 2.0 4.0 0.00 0.00 0.00 86 1010.0
20260509115522 52 44 2.0 4.0 0.00 0.00 0.00 86 1009.9
20260509115517 52 44 2.0 4.0 0.00 0.00 0.00 86 1009.9
20260509115507 52 44 2.0 4.0 0.00 0.00 0.00 86 1009.9
20260509115130 52 44 2.0 4.0 0.00 0.00 0.00 86 1009.8
20260509115029 52 44 2.0 4.0 0.00 0.00 0.00 86 1009.8
20260509114923 52 44 2.0 4.0 0.00 0.00 0.00 86 1009.8
20260509114823 52 44 2.0 4.0 0.00 0.00 0.00 86 1009.8
20260509114717 52 44 2.0 4.0 0.00 0.00 0.00 86 1009.8
20260509114617 52 44 2.0 4.0 0.00 0.00 0.00 86 1009.9
20260509114533 52 44 2.0 3.0 0.00 0.00 0.00 86 1010.0
20260509114526 52 44 2.0 4.0 0.00 0.00 0.00 86 1010.0
20260509114305 52 63 2.0 3.0 0.00 0.00 0.00 86 1009.9
20260509114204 52 63 2.0 3.0 0.00 0.00 0.00 86 1009.9
20260509114059 51 62 2.0 3.0 0.00 0.00 0.00 86 1010.0
20260509113959 51 62 1.0 3.0 0.00 0.00 0.00 86 1009.8
20260509113853 51 62 1.0 3.0 0.00 0.00 0.00 86 1009.7
20260509113753 51 62 1.0 3.0 0.00 0.00 0.00 86 1009.8
20260509113647 51 62 1.0 3.0 0.00 0.00 0.00 86 1009.8
20260509113547 51 62 1.0 3.0 0.00 0.00 0.00 86 1009.8
20260509113441 51 62 1.0 3.0 0.00 0.00 0.00 86 1009.8
20260509113341 51 62 1.0 3.0 0.00 0.00 0.00 86 1009.8
20260509113258 51 63 1.0 3.0 0.00 0.00 0.00 86 1009.9
20260509113249 51 62 1.0 3.0 0.00 0.00 0.00 86 1009.8
20260509113030 51 63 1.0 2.0 0.00 0.00 0.00 86 1009.9
20260509113024 51 63 1.0 3.0 0.00 0.00 0.00 86 1009.8
20260509113012 51 63 1.0 3.0 0.00 0.00 0.00 86 1009.9
20260509112852 51 63 1.0 3.0 0.00 0.00 0.00 86 1009.8
20260509112732 51 63 1.0 3.0 0.00 0.00 0.00 86 1009.8
20260509112518 51 63 0.0 3.0 0.00 0.00 0.00 86 1009.9
20260509112412 51 63 0.0 3.0 0.00 0.00 0.00 86 1009.9
20260509112311 51 63 0.0 3.0 0.00 0.00 0.00 86 1009.9
20260509112205 51 63 0.0 3.0 0.00 0.00 0.00 86 1009.8
20260509112105 51 63 0.0 3.0 0.00 0.00 0.00 86 1009.8
20260509112000 51 63 1.0 3.0 0.00 0.00 0.00 86 1009.7
20260509111914 51 63 1.0 3.0 0.00 0.00 0.00 86 1009.7
20260509111908 51 63 1.0 3.0 0.00 0.00 0.00 86 1009.7
20260509111653 51 63 1.0 3.0 0.00 0.00 0.00 86 1009.8
20260509111607 51 63 1.0 3.0 0.00 0.00 0.00 86 1009.8
20260509111600 51 63 1.0 3.0 0.00 0.00 0.00 86 1009.9
20260509111342 51 63 1.0 3.0 0.00 0.00 0.00 86 1009.8
20260509111240 51 63 1.0 3.0 0.00 0.00 0.00 86 1009.8
20260509111158 51 63 1.0 3.0 0.00 0.00 0.00 86 1009.9
20260509111150 51 63 1.0 3.0 0.00 0.00 0.00 86 1009.8
20260509110930 51 63 1.0 3.0 0.00 0.00 0.00 86 1009.8
20260509110829 51 63 1.0 3.0 0.00 0.00 0.00 86 1009.7
20260509110723 51 61 1.0 3.0 0.00 0.00 0.00 86 1009.6
20260509110623 51 60 1.0 3.0 0.00 0.00 0.00 86 1009.7
20260509110517 51 60 1.0 3.0 0.00 0.00 0.00 86 1009.7
20260509110417 50 60 1.0 3.0 0.00 0.00 0.00 86 1009.6
20260509110312 50 60 1.0 3.0 0.00 0.00 0.00 86 1009.5
20260509110211 50 59 1.0 3.0 0.00 0.00 0.00 86 1009.6
20260509110105 50 59 1.0 3.0 0.00 0.00 0.00 86 1009.6
20260509110005 50 59 1.0 3.0 0.00 0.00 0.00 86 1009.6
20260509105859 50 59 1.0 3.0 0.00 0.00 0.00 86 1009.7
20260509105815 50 59 1.0 3.0 0.00 0.00 0.00 86 1009.7
20260509105809 50 59 1.0 3.0 0.00 0.00 0.00 86 1009.7
20260509105553 50 59 1.0 3.0 0.00 0.00 0.00 86 1009.7
20260509105448 50 59 1.0 3.0 0.00 0.00 0.00 86 1009.7
20260509105442 50 59 1.0 3.0 0.00 0.00 0.00 86 1009.7
20260509105429 50 59 1.0 3.0 0.00 0.00 0.00 86 1009.6
20260509105309 50 59 1.0 3.0 0.00 0.00 0.00 86 1009.6
20260509105151 50 59 1.0 3.0 0.00 0.00 0.00 86 1009.6
20260509104935 50 59 1.0 3.0 0.00 0.00 0.00 86 1009.6
20260509104829 50 59 1.0 3.0 0.00 0.00 0.00 86 1009.6
20260509104729 50 59 1.0 4.0 0.00 0.00 0.00 87 1009.6
20260509104623 50 59 1.0 4.0 0.00 0.00 0.00 87 1009.6
20260509104523 50 59 1.0 4.0 0.00 0.00 0.00 87 1009.7
20260509104417 50 59 1.0 4.0 0.00 0.00 0.00 87 1009.7
20260509104317 50 59 1.0 4.0 0.00 0.00 0.00 87 1009.7
20260509104211 50 59 1.0 4.0 0.00 0.00 0.00 87 1009.7
20260509104111 50 59 1.0 4.0 0.00 0.00 0.00 87 1009.6
20260509104005 50 59 1.0 4.0 0.00 0.00 0.00 87 1009.7
20260509103905 50 59 1.0 4.0 0.00 0.00 0.00 87 1009.7
20260509103758 50 59 2.0 4.0 0.00 0.00 0.00 87 1009.6
20260509103659 50 59 2.0 4.0 0.00 0.00 0.00 87 1009.6
20260509103554 50 59 2.0 4.0 0.00 0.00 0.00 87 1009.7
20260509103454 50 59 2.0 4.0 0.00 0.00 0.00 87 1009.8
20260509103347 50 59 2.0 4.0 0.00 0.00 0.00 87 1009.8
20260509103248 50 59 2.0 4.0 0.00 0.00 0.00 86 1009.6
20260509103142 50 59 2.0 4.0 0.00 0.00 0.00 86 1009.4
20260509103057 50 59 2.0 4.0 0.00 0.00 0.00 87 1009.3
20260509103051 50 59 2.0 4.0 0.00 0.00 0.00 86 1009.4
20260509102835 50 58 1.0 4.0 0.00 0.00 0.00 87 1009.4
20260509102729 50 58 1.0 4.0 0.00 0.00 0.00 87 1009.3
20260509102629 50 59 1.0 4.0 0.00 0.00 0.00 87 1009.5
20260509102522 50 59 1.0 4.0 0.00 0.00 0.00 87 1009.6
20260509102423 50 59 1.0 4.0 0.00 0.00 0.00 86 1009.5
20260509102317 50 59 2.0 4.0 0.00 0.00 0.00 86 1009.5
20260509102234 50 59 2.0 4.0 0.00 0.00 0.00 86 1009.5
20260509102227 50 59 2.0 4.0 0.00 0.00 0.00 86 1009.5
20260509102011 50 59 2.0 4.0 0.00 0.00 0.00 86 1009.5
20260509101905 50 59 2.0 4.0 0.00 0.00 0.00 87 1009.5
20260509101821 50 59 2.0 4.0 0.00 0.00 0.00 87 1009.5
20260509101814 50 59 2.0 4.0 0.00 0.00 0.00 87 1009.5
20260509101559 50 59 2.0 4.0 0.00 0.00 0.00 87 1009.5
20260509101452 50 59 1.0 4.0 0.00 0.00 0.00 87 1009.5
20260509101353 50 59 1.0 4.0 0.00 0.00 0.00 87 1009.6
20260509101248 50 59 1.0 4.0 0.00 0.00 0.00 86 1009.6
20260509101147 50 59 1.0 4.0 0.00 0.00 0.00 86 1009.6
20260509101042 50 59 1.0 4.0 0.00 0.00 0.00 86 1009.5
20260509100941 50 59 1.0 3.0 0.00 0.00 0.00 86 1009.5
20260509100836 50 60 1.0 3.0 0.00 0.00 0.00 86 1009.5
20260509100752 50 59 1.0 5.0 0.00 0.00 0.00 86 1009.4
20260509100745 50 60 1.0 5.0 0.00 0.00 0.00 86 1009.4
20260509100529 50 59 1.0 5.0 0.00 0.00 0.00 86 1009.4
20260509100423 50 59 1.0 5.0 0.00 0.00 0.00 86 1009.3
20260509100323 50 59 1.0 5.0 0.00 0.00 0.00 86 1009.4
20260509100217 50 59 1.0 5.0 0.00 0.00 0.00 86 1009.4
20260509100154 50 59 1.0 5.0 0.00 0.00 0.00 86 1009.5
20260509100145 50 59 1.0 5.0 0.00 0.00 0.00 86 1009.4
20260509100026 50 59 1.0 5.0 0.00 0.00 0.00 86 1009.4
20260509095842 50 59 2.0 5.0 0.00 0.00 0.00 86 1009.4
20260509095833 50 59 1.0 5.0 0.00 0.00 0.00 86 1009.4
20260509095714 50 59 1.0 5.0 0.00 0.00 0.00 86 1009.4
20260509095459 50 59 2.0 5.0 0.00 0.00 0.00 86 1009.4
20260509095352 50 59 2.0 5.0 0.00 0.00 0.00 86 1009.4
20260509095253 50 59 2.0 5.0 0.00 0.00 0.00 86 1009.4
20260509095208 50 59 2.0 5.0 0.00 0.00 0.00 86 1009.3
20260509095200 50 59 2.0 5.0 0.00 0.00 0.00 86 1009.3
20260509094942 50 59 3.0 5.0 0.00 0.00 0.00 86 1009.2
20260509094859 50 66 2.0 5.0 0.00 0.00 0.00 86 1009.4
20260509094852 50 59 2.0 5.0 0.00 0.00 0.00 86 1009.3
20260509094635 50 66 2.0 5.0 0.00 0.00 0.00 86 1009.4
20260509094528 50 66 2.0 5.0 0.00 0.00 0.00 86 1009.3
20260509094429 50 66 2.0 5.0 0.00 0.00 0.00 86 1009.3
20260509094322 50 67 2.0 5.0 0.00 0.00 0.00 86 1009.4
20260509094238 50 67 2.0 5.0 0.00 0.00 0.00 86 1009.3
20260509094232 50 67 2.0 5.0 0.00 0.00 0.00 86 1009.3
20260509094034 50 84 2.0 3.0 0.00 0.00 0.00 86 1009.5
20260509094027 50 67 2.0 5.0 0.00 0.00 0.00 86 1009.4
20260509093811 50 84 1.0 3.0 0.00 0.00 0.00 86 1009.5
20260509093705 50 84 1.0 3.0 0.00 0.00 0.00 86 1009.5
20260509093605 50 84 1.0 3.0 0.00 0.00 0.00 86 1009.5
20260509093500 50 84 1.0 3.0 0.00 0.00 0.00 86 1009.6
20260509093359 50 87 1.0 3.0 0.00 0.00 0.00 86 1009.6
20260509093253 50 87 0.0 2.0 0.00 0.00 0.00 86 1009.6
20260509093230 50 87 0.0 2.0 0.00 0.00 0.00 86 1009.6
20260509093226 50 87 0.0 3.0 0.00 0.00 0.00 86 1009.6
20260509093216 50 87 0.0 2.0 0.00 0.00 0.00 86 1009.6
20260509092840 50 87 0.0 3.0 0.00 0.00 0.00 86 1009.7
20260509092741 50 87 0.0 3.0 0.00 0.00 0.00 86 1009.6
20260509092635 50 87 0.0 3.0 0.00 0.00 0.00 86 1009.7
20260509092535 50 87 0.0 3.0 0.00 0.00 0.00 86 1009.6
20260509092429 50 87 0.0 3.0 0.00 0.00 0.00 86 1009.6
20260509092329 50 87 0.0 3.0 0.00 0.00 0.00 86 1009.6
20260509092223 50 87 1.0 3.0 0.00 0.00 0.00 86 1009.6
20260509092123 50 87 1.0 3.0 0.00 0.00 0.00 86 1009.6
20260509092039 50 87 1.0 3.0 0.00 0.00 0.00 86 1009.6
20260509092032 50 87 1.0 3.0 0.00 0.00 0.00 86 1009.6
20260509091833 50 87 1.0 3.0 0.00 0.00 0.00 86 1009.6
20260509091825 50 87 1.0 3.0 0.00 0.00 0.00 86 1009.5
20260509091610 50 87 1.0 3.0 0.00 0.00 0.00 86 1009.5
20260509091512 50 87 1.0 3.0 0.00 0.00 0.00 86 1009.5
20260509091459 50 87 1.0 5.0 0.00 0.00 0.00 86 1009.5
20260509091454 50 87 1.0 5.0 0.00 0.00 0.00 84 1009.4
20260509091444 50 87 1.0 3.0 0.00 0.00 0.00 86 1009.5
20260509091326 50 87 1.0 3.0 0.00 0.00 0.00 86 1009.5
20260509091311 50 87 1.0 5.0 0.00 0.00 0.00 86 1009.5
20260509091200 50 87 1.0 5.0 0.00 0.00 0.00 86 1009.5
20260509091155 50 87 1.0 5.0 0.00 0.00 0.00 85 1009.5
20260509091144 50 87 1.0 5.0 0.00 0.00 0.00 86 1009.6
20260509090900 50 87 1.0 5.0 0.00 0.00 0.00 85 1009.5
20260509090625 50 87 1.0 5.0 0.00 0.00 0.00 85 1009.5
20260509090505 50 87 1.0 5.0 0.00 0.00 0.00 84 1009.5
20260509090245 50 87 1.0 5.0 0.00 0.00 0.00 84 1009.5
20260509090145 50 88 1.0 3.0 0.00 0.00 0.00 84 1009.5
20260509090055 50 87 1.0 5.0 0.00 0.00 0.00 84 1009.5
20260509085832 50 87 1.0 5.0 0.00 0.00 0.00 84 1009.5
20260509085734 50 87 1.0 5.0 0.00 0.00 0.00 84 1009.5
20260509085626 50 87 1.0 5.0 0.00 0.00 0.00 84 1009.5
20260509085527 50 87 1.0 5.0 0.00 0.00 0.00 84 1009.6
20260509085421 50 87 1.0 5.0 0.00 0.00 0.00 84 1009.6
20260509085337 50 87 1.0 5.0 0.00 0.00 0.00 85 1009.6
20260509085331 50 87 1.0 5.0 0.00 0.00 0.00 84 1009.6
20260509085115 50 87 1.0 5.0 0.00 0.00 0.00 85 1009.6
20260509085010 50 87 1.0 5.0 0.00 0.00 0.00 85 1009.6
20260509084910 50 87 1.0 5.0 0.00 0.00 0.00 85 1009.6
20260509084826 50 87 1.0 5.0 0.00 0.00 0.00 85 1009.6
20260509084818 50 87 1.0 5.0 0.00 0.00 0.00 85 1009.6
20260509084557 50 88 1.0 5.0 0.00 0.00 0.00 85 1009.7
20260509084457 50 88 1.0 5.0 0.00 0.00 0.00 85 1009.7
20260509084352 50 88 2.0 7.0 0.00 0.00 0.00 85 1009.7
20260509084251 50 88 2.0 7.0 0.00 0.00 0.00 85 1009.7
20260509084145 50 88 2.0 7.0 0.00 0.00 0.00 85 1009.7
20260509084045 50 87 2.0 7.0 0.00 0.00 0.00 85 1009.7
20260509083939 50 87 2.0 7.0 0.00 0.00 0.00 86 1009.7
20260509083839 50 87 2.0 7.0 0.00 0.00 0.00 86 1009.7
20260509083732 50 87 2.0 7.0 0.00 0.00 0.00 86 1009.7
20260509083650 50 87 2.0 7.0 0.00 0.00 0.00 86 1009.7
20260509083644 50 87 2.0 7.0 0.00 0.00 0.00 86 1009.7
20260509083427 50 87 2.0 7.0 0.00 0.00 0.00 86 1009.8
20260509083321 50 87 2.0 7.0 0.00 0.00 0.00 86 1009.7
20260509083221 50 87 2.0 7.0 0.00 0.00 0.00 86 1009.7
20260509083140 50 86 3.0 7.0 0.00 0.00 0.00 86 1009.7
20260509083135 50 87 2.0 7.0 0.00 0.00 0.00 86 1009.7
20260509083128 50 87 2.0 7.0 0.00 0.00 0.00 86 1009.7
20260509083114 50 87 2.0 7.0 0.00 0.00 0.00 86 1009.7
20260509082838 50 87 3.0 7.0 0.00 0.00 0.00 86 1009.7
20260509082718 50 86 3.0 7.0 0.00 0.00 0.00 86 1009.7
20260509082457 50 86 3.0 7.0 0.00 0.00 0.00 86 1009.7
20260509082357 50 86 3.0 7.0 0.00 0.00 0.00 86 1009.8
20260509082251 50 86 3.0 7.0 0.00 0.00 0.00 86 1009.7
20260509082153 50 86 3.0 7.0 0.00 0.00 0.00 86 1009.7
20260509082147 49 74 2.0 7.0 0.00 0.00 0.00 86 1009.8
20260509082143 50 78 2.0 7.0 0.00 0.00 0.00 86 1009.7
20260509082130 50 86 3.0 7.0 0.00 0.00 0.00 86 1009.7
20260509082010 50 80 2.0 7.0 0.00 0.00 0.00 86 1009.7
20260509081634 49 86 2.0 5.0 0.00 0.00 0.00 86 1009.8
20260509081549 49 84 2.0 6.0 0.00 0.00 0.00 86 1009.8
20260509081543 49 84 2.0 5.0 0.00 0.00 0.00 86 1009.8
20260509081327 49 84 2.0 6.0 0.00 0.00 0.00 86 1009.8
20260509081222 49 84 2.0 6.0 0.00 0.00 0.00 86 1009.8
20260509081137 49 84 2.0 6.0 0.00 0.00 0.00 86 1009.8
20260509081131 49 84 2.0 6.0 0.00 0.00 0.00 86 1009.8
20260509080915 49 84 2.0 6.0 0.00 0.00 0.00 86 1009.8
20260509080810 49 82 2.0 6.0 0.00 0.00 0.00 86 1009.8
20260509080709 49 82 2.0 6.0 0.00 0.00 0.00 86 1009.8
20260509080603 49 82 2.0 6.0 0.00 0.00 0.00 86 1009.8
20260509080502 49 82 2.0 6.0 0.00 0.00 0.00 86 1009.8
20260509080358 49 80 2.0 6.0 0.00 0.00 0.00 86 1009.9
20260509080259 49 80 3.0 6.0 0.00 0.00 0.00 86 1009.9
20260509080151 49 80 3.0 6.0 0.00 0.00 0.00 86 1009.9
20260509080051 49 80 3.0 6.0 0.00 0.00 0.00 86 1009.9
20260509075945 49 82 2.0 6.0 0.00 0.00 0.00 87 1009.9
20260509075845 49 82 2.0 6.0 0.00 0.00 0.00 87 1009.9
20260509075741 49 81 2.0 6.0 0.00 0.00 0.00 87 1009.9
20260509075639 49 83 2.0 6.0 0.00 0.00 0.00 87 1010.0
20260509075534 49 82 2.0 6.0 0.00 0.00 0.00 87 1010.0
20260509075433 49 71 2.0 5.0 0.00 0.00 0.00 87 1010.0
20260509075328 49 71 1.0 5.0 0.00 0.00 0.00 87 1010.0
20260509075243 49 43 1.0 4.0 0.00 0.00 0.00 87 1010.0
20260509075236 49 59 1.0 4.0 0.00 0.00 0.00 87 1010.0
20260509075021 49 42 2.0 4.0 0.00 0.00 0.00 87 1009.9
20260509074915 49 42 2.0 4.0 0.00 0.00 0.00 87 1009.9
20260509074815 49 63 2.0 4.0 0.00 0.00 0.00 87 1009.9
20260509074710 48 63 1.0 4.0 0.00 0.00 0.00 87 1009.9
20260509074625 48 63 1.0 4.0 0.00 0.00 0.00 87 1009.9
20260509074619 48 63 1.0 4.0 0.00 0.00 0.00 87 1009.9
20260509074403 48 65 1.0 4.0 0.00 0.00 0.00 87 1009.9
20260509074257 48 65 1.0 4.0 0.00 0.00 0.00 87 1009.9
20260509074157 48 63 1.0 3.0 0.00 0.00 0.00 87 1009.9
20260509074051 48 56 1.0 3.0 0.00 0.00 0.00 87 1010.0
20260509074010 48 55 1.0 3.0 0.00 0.00 0.00 87 1009.9
20260509074003 48 55 1.0 3.0 0.00 0.00 0.00 87 1009.9
20260509073746 48 55 1.0 3.0 0.00 0.00 0.00 87 1009.9
20260509073659 48 55 1.0 3.0 0.00 0.00 0.00 87 1009.9
20260509073653 48 55 1.0 3.0 0.00 0.00 0.00 87 1009.9
20260509073433 48 54 1.0 3.0 0.00 0.00 0.00 87 1009.9
20260509073410 48 55 1.0 3.0 0.00 0.00 0.00 86 1009.9
20260509073406 48 54 1.0 3.0 0.00 0.00 0.00 86 1009.9
20260509073356 48 55 1.0 3.0 0.00 0.00 0.00 87 1009.9
20260509073020 48 54 1.0 3.0 0.00 0.00 0.00 86 1009.9
20260509072921 48 53 1.0 3.0 0.00 0.00 0.00 86 1009.9
20260509072815 48 53 1.0 3.0 0.00 0.00 0.00 86 1010.0
20260509072714 48 36 1.0 3.0 0.00 0.00 0.00 86 1010.0
20260509072609 48 36 0.0 3.0 0.00 0.00 0.00 86 1010.0
20260509072509 48 35 0.0 3.0 0.00 0.00 0.00 86 1010.0
20260509072403 48 35 0.0 3.0 0.00 0.00 0.00 86 1010.0
20260509072306 48 34 0.0 3.0 0.00 0.00 0.00 86 1010.0
20260509072220 48 34 0.0 3.0 0.00 0.00 0.00 85 1010.0
20260509072213 48 34 0.0 3.0 0.00 0.00 0.00 86 1010.1
20260509071951 48 34 0.0 3.0 0.00 0.00 0.00 85 1010.1
20260509071851 48 34 0.0 3.0 0.00 0.00 0.00 85 1010.2
20260509071745 48 34 0.0 3.0 0.00 0.00 0.00 85 1010.1
20260509071645 48 34 0.0 3.0 0.00 0.00 0.00 85 1010.2
20260509071540 48 34 0.0 3.0 0.00 0.00 0.00 85 1010.2
20260509071515 48 34 0.0 3.0 0.00 0.00 0.00 84 1010.1
20260509071511 48 34 0.0 3.0 0.00 0.00 0.00 84 1010.1
20260509071502 48 34 0.0 3.0 0.00 0.00 0.00 84 1010.1
20260509071127 48 34 0.0 3.0 0.00 0.00 0.00 84 1010.1
20260509071027 48 34 0.0 3.0 0.00 0.00 0.00 84 1010.1
20260509070920 48 34 0.0 2.0 0.00 0.00 0.00 83 1010.1
20260509070822 48 34 0.0 2.0 0.00 0.00 0.00 83 1010.1
20260509070735 48 34 0.0 2.0 0.00 0.00 0.00 82 1010.2
20260509070729 48 34 0.0 2.0 0.00 0.00 0.00 82 1010.2
20260509070509 48 34 1.0 2.0 0.00 0.00 0.00 82 1010.2
20260509070426 49 34 1.0 5.0 0.00 0.00 0.00 82 1010.2
20260509070418 49 34 1.0 5.0 0.00 0.00 0.00 82 1010.1
20260509070219 49 34 1.0 5.0 0.00 0.00 0.00 81 1010.1
20260509070213 49 34 1.0 5.0 0.00 0.00 0.00 81 1010.1
20260509065957 49 34 1.0 5.0 0.00 0.00 0.00 81 1010.1
20260509065851 49 34 1.0 5.0 0.00 0.00 0.00 81 1010.2
20260509065751 49 34 1.0 5.0 0.00 0.00 0.00 81 1010.2
20260509065645 49 34 1.0 5.0 0.00 0.00 0.00 81 1010.2
20260509065544 49 34 1.0 5.0 0.00 0.00 0.00 81 1010.2
20260509065439 50 34 2.0 5.0 0.00 0.00 0.00 80 1010.2
20260509065339 50 34 2.0 5.0 0.00 0.00 0.00 80 1010.2
20260509065233 50 34 2.0 5.0 0.00 0.00 0.00 80 1010.2
20260509065149 50 34 2.0 5.0 0.00 0.00 0.00 80 1010.2
20260509065143 50 34 2.0 5.0 0.00 0.00 0.00 80 1010.2
20260509064927 50 34 2.0 7.0 0.00 0.00 0.00 80 1010.2
20260509064822 50 34 2.0 7.0 0.00 0.00 0.00 80 1010.2
20260509064721 51 34 2.0 7.0 0.00 0.00 0.00 80 1010.2
20260509064637 51 34 2.0 7.0 0.00 0.00 0.00 79 1010.2
20260509064629 51 34 2.0 7.0 0.00 0.00 0.00 80 1010.2
20260509064408 51 34 2.0 7.0 0.00 0.00 0.00 79 1010.3
20260509064326 51 34 2.0 7.0 0.00 0.00 0.00 79 1010.3
20260509064320 51 34 2.0 7.0 0.00 0.00 0.00 79 1010.3
20260509064103 51 34 3.0 7.0 0.00 0.00 0.00 79 1010.3
20260509064021 51 34 3.0 7.0 0.00 0.00 0.00 79 1010.3
20260509064012 51 34 3.0 7.0 0.00 0.00 0.00 79 1010.3
20260509063830 52 34 3.0 7.0 0.00 0.00 0.00 79 1010.3
20260509063825 52 33 3.0 7.0 0.00 0.00 0.00 79 1010.3
20260509063816 52 34 3.0 7.0 0.00 0.00 0.00 79 1010.3
20260509063445 52 33 3.0 7.0 0.00 0.00 0.00 79 1010.3
20260509063338 52 32 3.0 7.0 0.00 0.00 0.00 79 1010.3
20260509063239 52 35 3.0 7.0 0.00 0.00 0.00 80 1010.3
20260509063133 52 34 3.0 7.0 0.00 0.00 0.00 80 1010.3
20260509063034 52 35 3.0 7.0 0.00 0.00 0.00 80 1010.3
20260509062954 52 40 3.0 8.0 0.00 0.00 0.00 79 1010.4
20260509062948 51 39 3.0 5.0 0.00 0.00 0.00 80 1010.4
20260509062944 51 39 3.0 5.0 0.00 0.00 0.00 79 1010.4
20260509062936 52 37 3.0 5.0 0.00 0.00 0.00 80 1010.3
20260509062922 51 38 3.0 5.0 0.00 0.00 0.00 80 1010.3
20260509062530 51 40 3.0 5.0 0.00 0.00 0.00 79 1010.4
20260509062309 52 40 3.0 8.0 0.00 0.00 0.00 79 1010.4
20260509062209 52 40 3.0 8.0 0.00 0.00 0.00 79 1010.5
20260509062103 52 40 3.0 8.0 0.00 0.00 0.00 79 1010.5
20260509062003 52 40 3.0 8.0 0.00 0.00 0.00 79 1010.4
20260509061856 52 40 3.0 8.0 0.00 0.00 0.00 79 1010.4
20260509061757 52 39 3.0 8.0 0.00 0.00 0.00 79 1010.4
20260509061650 52 34 3.0 8.0 0.00 0.00 0.00 79 1010.4
20260509061551 52 34 3.0 8.0 0.00 0.00 0.00 79 1010.4
20260509061445 52 34 3.0 8.0 0.00 0.00 0.00 79 1010.4
20260509061345 52 36 3.0 8.0 0.00 0.00 0.00 79 1010.3
20260509061239 52 35 4.0 8.0 0.00 0.00 0.00 79 1010.3
20260509061139 52 34 4.0 8.0 0.00 0.00 0.00 79 1010.3
20260509061034 52 37 4.0 8.0 0.00 0.00 0.00 79 1010.3
20260509060934 52 39 4.0 8.0 0.00 0.00 0.00 80 1010.3
20260509060826 52 35 4.0 8.0 0.00 0.00 0.00 80 1010.3
20260509060727 52 36 4.0 8.0 0.00 0.00 0.00 80 1010.3
20260509060622 52 17 3.0 8.0 0.00 0.00 0.00 80 1010.4
20260509060521 52 38 3.0 8.0 0.00 0.00 0.00 80 1010.4
20260509060415 52 42 4.0 7.0 0.00 0.00 0.00 80 1010.4
20260509060314 52 43 4.0 7.0 0.00 0.00 0.00 80 1010.5
20260509060210 52 42 3.0 7.0 0.00 0.00 0.00 80 1010.5
20260509060109 52 41 4.0 7.0 0.00 0.00 0.00 81 1010.5
20260509060004 52 43 4.0 7.0 0.00 0.00 0.00 81 1010.5
20260509055903 52 43 4.0 7.0 0.00 0.00 0.00 81 1010.5
20260509055758 52 44 4.0 7.0 0.00 0.00 0.00 81 1010.5
20260509055657 52 29 4.0 7.0 0.00 0.00 0.00 81 1010.5
20260509055551 52 28 4.0 7.0 0.00 0.00 0.00 81 1010.5
20260509055532 52 23 3.0 7.0 0.00 0.00 0.00 82 1010.4
20260509055520 52 28 4.0 7.0 0.00 0.00 0.00 82 1010.4
20260509055400 52 24 3.0 7.0 0.00 0.00 0.00 82 1010.5
20260509055139 52 24 3.0 7.0 0.00 0.00 0.00 82 1010.4
20260509055039 52 36 3.0 6.0 0.00 0.00 0.00 82 1010.4
20260509054933 52 40 3.0 6.0 0.00 0.00 0.00 82 1010.4
20260509054851 51 38 3.0 6.0 0.00 0.00 0.00 83 1010.4
20260509054843 51 40 3.0 6.0 0.00 0.00 0.00 83 1010.4
20260509054627 51 38 3.0 6.0 0.00 0.00 0.00 83 1010.4
20260509054522 51 38 3.0 6.0 0.00 0.00 0.00 83 1010.4
20260509054421 51 43 3.0 6.0 0.00 0.00 0.00 83 1010.4
20260509054316 51 43 3.0 6.0 0.00 0.00 0.00 83 1010.4
20260509054234 51 44 3.0 6.0 0.00 0.00 0.00 84 1010.5
20260509054227 51 43 3.0 6.0 0.00 0.00 0.00 84 1010.4
20260509054009 51 36 3.0 6.0 0.00 0.00 0.00 84 1010.5
20260509053903 51 36 3.0 6.0 0.00 0.00 0.00 84 1010.5
20260509053820 51 26 3.0 6.0 0.00 0.00 0.00 85 1010.5
20260509053813 51 31 3.0 6.0 0.00 0.00 0.00 84 1010.5
20260509053557 51 27 3.0 6.0 0.00 0.00 0.00 85 1010.6
20260509053450 51 28 3.0 5.0 0.00 0.00 0.00 85 1010.6
20260509053351 51 27 2.0 5.0 0.00 0.00 0.00 85 1010.6
20260509053245 51 27 2.0 5.0 0.00 0.00 0.00 85 1010.6
20260509053145 51 36 2.0 5.0 0.00 0.00 0.00 85 1010.6
20260509053039 51 38 2.0 4.0 0.00 0.00 0.00 85 1010.6
20260509052956 51 38 2.0 4.0 0.00 0.00 0.00 85 1010.6
20260509052949 51 38 2.0 4.0 0.00 0.00 0.00 85 1010.5
20260509052750 51 38 2.0 4.0 0.00 0.00 0.00 84 1010.6
20260509052743 51 38 2.0 4.0 0.00 0.00 0.00 85 1010.6
20260509052527 51 38 2.0 4.0 0.00 0.00 0.00 84 1010.6
20260509052422 51 38 2.0 4.0 0.00 0.00 0.00 84 1010.5
20260509052337 51 39 2.0 4.0 0.00 0.00 0.00 84 1010.6
20260509052330 51 39 2.0 4.0 0.00 0.00 0.00 84 1010.6
20260509052115 51 38 1.0 4.0 0.00 0.00 0.00 84 1010.6
20260509052009 51 37 1.0 4.0 0.00 0.00 0.00 84 1010.6
20260509051908 51 36 1.0 4.0 0.00 0.00 0.00 84 1010.7
20260509051828 51 11 1.0 4.0 0.00 0.00 0.00 84 1010.7
20260509051820 51 35 1.0 4.0 0.00 0.00 0.00 84 1010.7
20260509051557 51 11 1.0 4.0 0.00 0.00 0.00 84 1010.7
20260509051457 51 11 1.0 4.0 0.00 0.00 0.00 83 1010.7
20260509051352 51 11 1.0 4.0 0.00 0.00 0.00 83 1010.7
20260509051251 51 11 2.0 4.0 0.00 0.00 0.00 83 1010.8
20260509051146 51 11 2.0 4.0 0.00 0.00 0.00 83 1010.8
20260509051045 51 11 2.0 4.0 0.00 0.00 0.00 83 1010.8
20260509050940 51 11 2.0 4.0 0.00 0.00 0.00 83 1010.8
20260509050838 51 11 2.0 4.0 0.00 0.00 0.00 83 1010.8
20260509050756 51 11 2.0 4.0 0.00 0.00 0.00 82 1010.9
20260509050749 51 11 2.0 4.0 0.00 0.00 0.00 83 1010.9
20260509050526 51 11 2.0 3.0 0.00 0.00 0.00 82 1010.9
20260509050427 51 11 2.0 3.0 0.00 0.00 0.00 82 1010.9
20260509050320 51 11 2.0 3.0 0.00 0.00 0.00 82 1010.9
20260509050221 51 11 2.0 3.0 0.00 0.00 0.00 83 1010.9
20260509050114 51 11 2.0 3.0 0.00 0.00 0.00 83 1011.0
20260509050032 51 11 2.0 3.0 0.00 0.00 0.00 83 1011.0
20260509050025 51 11 2.0 3.0 0.00 0.00 0.00 83 1010.9
20260509045809 51 11 2.0 3.0 0.00 0.00 0.00 83 1011.0
20260509045704 51 11 2.0 3.0 0.00 0.00 0.00 83 1011.1
20260509045600 51 11 2.0 3.0 0.00 0.00 0.00 83 1011.1
20260509045516 51 11 1.0 3.0 0.00 0.00 0.00 83 1011.0
20260509045509 51 11 2.0 3.0 0.00 0.00 0.00 83 1011.0
20260509045248 51 11 1.0 3.0 0.00 0.00 0.00 83 1011.0
20260509045146 51 11 1.0 3.0 0.00 0.00 0.00 83 1011.0
20260509045101 51 11 1.0 3.0 0.00 0.00 0.00 83 1011.0
20260509045055 51 11 1.0 3.0 0.00 0.00 0.00 83 1011.0
20260509044834 51 11 1.0 3.0 0.00 0.00 0.00 83 1011.0
20260509044735 51 11 1.0 3.0 0.00 0.00 0.00 83 1011.0
20260509044628 51 11 1.0 3.0 0.00 0.00 0.00 83 1011.0
20260509044529 51 11 1.0 3.0 0.00 0.00 0.00 83 1011.0
20260509044423 51 11 1.0 3.0 0.00 0.00 0.00 83 1010.9
20260509044323 51 11 1.0 3.0 0.00 0.00 0.00 83 1010.9
20260509044217 51 11 1.0 3.0 0.00 0.00 0.00 83 1010.9
20260509044117 51 11 1.0 3.0 0.00 0.00 0.00 83 1010.9
20260509044013 51 11 1.0 3.0 0.00 0.00 0.00 83 1010.9
20260509043911 51 11 1.0 3.0 0.00 0.00 0.00 83 1010.9
20260509043804 51 11 1.0 3.0 0.00 0.00 0.00 82 1010.9
20260509043705 51 11 1.0 3.0 0.00 0.00 0.00 82 1010.9
20260509043559 51 10 0.0 3.0 0.00 0.00 0.00 82 1010.9
20260509043514 51 10 0.0 3.0 0.00 0.00 0.00 81 1010.8
20260509043508 51 10 0.0 3.0 0.00 0.00 0.00 82 1010.8
20260509043253 51 10 0.0 3.0 0.00 0.00 0.00 81 1010.8
20260509043209 51 10 0.0 3.0 0.00 0.00 0.00 81 1010.8
20260509043202 51 10 0.0 3.0 0.00 0.00 0.00 81 1010.8
20260509043001 51 10 0.0 3.0 0.00 0.00 0.00 81 1010.8
20260509042954 51 10 0.0 3.0 0.00 0.00 0.00 81 1010.8
20260509042734 51 10 0.0 3.0 0.00 0.00 0.00 80 1010.8
20260509042635 51 10 1.0 3.0 0.00 0.00 0.00 80 1010.8
20260509042528 51 10 1.0 3.0 0.00 0.00 0.00 80 1010.8
20260509042429 51 10 1.0 3.0 0.00 0.00 0.00 80 1010.8
20260509042346 52 10 1.0 3.0 0.00 0.00 0.00 80 1010.8
20260509042337 51 10 1.0 3.0 0.00 0.00 0.00 80 1010.8
20260509042117 52 10 1.0 3.0 0.00 0.00 0.00 80 1010.8
20260509042017 52 10 1.0 3.0 0.00 0.00 0.00 80 1010.8
20260509041911 52 10 1.0 3.0 0.00 0.00 0.00 80 1010.8
20260509041811 52 10 1.0 6.0 0.00 0.00 0.00 80 1010.8
20260509041705 52 10 1.0 6.0 0.00 0.00 0.00 80 1010.7
20260509041605 52 10 1.0 6.0 0.00 0.00 0.00 80 1010.7
20260509041459 52 10 2.0 6.0 0.00 0.00 0.00 80 1010.7
20260509041359 52 10 2.0 6.0 0.00 0.00 0.00 80 1010.8
20260509041254 53 10 2.0 6.0 0.00 0.00 0.00 80 1010.8
20260509041153 53 10 2.0 6.0 0.00 0.00 0.00 80 1010.8
20260509041046 53 10 2.0 6.0 0.00 0.00 0.00 80 1010.8
20260509040946 53 10 3.0 6.0 0.00 0.00 0.00 80 1010.8
20260509040840 53 10 3.0 6.0 0.00 0.00 0.00 80 1010.8
20260509040740 53 9 3.0 6.0 0.00 0.00 0.00 80 1010.9
20260509040634 53 9 3.0 6.0 0.00 0.00 0.00 80 1010.8
20260509040552 53 9 4.0 6.0 0.00 0.00 0.00 80 1010.8
20260509040544 53 9 4.0 6.0 0.00 0.00 0.00 80 1010.9
20260509040328 53 10 4.0 6.0 0.00 0.00 0.00 79 1010.9
20260509040221 53 13 4.0 6.0 0.00 0.00 0.00 80 1010.8
20260509040122 53 14 4.0 6.0 0.00 0.00 0.00 80 1010.8
20260509040016 53 13 3.0 6.0 0.00 0.00 0.00 80 1010.8
20260509035932 53 12 3.0 6.0 0.00 0.00 0.00 80 1010.9
20260509035926 53 11 3.0 6.0 0.00 0.00 0.00 80 1010.9
20260509035726 53 17 2.0 6.0 0.00 0.00 0.00 80 1011.0
20260509035720 53 12 3.0 6.0 0.00 0.00 0.00 80 1010.9
20260509035504 53 62 2.0 4.0 0.00 0.00 0.00 80 1011.0
20260509035358 53 71 2.0 4.0 0.00 0.00 0.00 80 1011.0
20260509035258 53 73 2.0 4.0 0.00 0.00 0.00 80 1011.0
20260509035153 53 75 1.0 4.0 0.00 0.00 0.00 80 1011.0
20260509035052 53 76 1.0 3.0 0.00 0.00 0.00 80 1011.0
20260509034947 53 76 1.0 3.0 0.00 0.00 0.00 80 1011.0
20260509034845 53 76 1.0 3.0 0.00 0.00 0.00 80 1011.1
20260509034739 53 76 1.0 3.0 0.00 0.00 0.00 80 1011.1
20260509034656 53 76 1.0 3.0 0.00 0.00 0.00 80 1011.2
20260509034649 53 76 1.0 3.0 0.00 0.00 0.00 80 1011.1
20260509034434 53 76 1.0 3.0 0.00 0.00 0.00 80 1011.2
20260509034351 53 76 2.0 3.0 0.00 0.00 0.00 80 1011.2
20260509034342 53 76 1.0 3.0 0.00 0.00 0.00 80 1011.3
20260509034145 53 76 2.0 3.0 0.00 0.00 0.00 81 1011.2
20260509034136 53 76 2.0 3.0 0.00 0.00 0.00 81 1011.2
20260509033915 53 77 2.0 2.0 0.00 0.00 0.00 81 1011.3
20260509033816 53 76 2.0 2.0 0.00 0.00 0.00 81 1011.3
20260509033710 53 76 2.0 2.0 0.00 0.00 0.00 81 1011.3
20260509033610 53 77 2.0 2.0 0.00 0.00 0.00 81 1011.3
20260509033504 53 76 2.0 2.0 0.00 0.00 0.00 81 1011.3
20260509033404 53 76 1.0 2.0 0.00 0.00 0.00 81 1011.3
20260509033258 53 76 1.0 2.0 0.00 0.00 0.00 81 1011.3
20260509033158 53 76 1.0 2.0 0.00 0.00 0.00 81 1011.3
20260509033051 53 76 1.0 2.0 0.00 0.00 0.00 80 1011.4
20260509032952 53 76 1.0 2.0 0.00 0.00 0.00 80 1011.4
20260509032845 53 76 1.0 2.0 0.00 0.00 0.00 80 1011.3
20260509032801 53 76 1.0 2.0 0.00 0.00 0.00 79 1011.2
20260509032755 53 76 1.0 2.0 0.00 0.00 0.00 80 1011.3
20260509032540 53 76 1.0 2.0 0.00 0.00 0.00 79 1011.2
20260509032457 53 76 1.0 2.0 0.00 0.00 0.00 79 1011.2
20260509032448 53 76 1.0 2.0 0.00 0.00 0.00 79 1011.2
20260509032228 53 76 1.0 2.0 0.00 0.00 0.00 79 1011.1
20260509032128 53 76 1.0 2.0 0.00 0.00 0.00 79 1011.1
20260509032021 53 76 1.0 2.0 0.00 0.00 0.00 79 1011.2
20260509031922 53 76 1.0 2.0 0.00 0.00 0.00 79 1011.2
20260509031819 53 76 1.0 2.0 0.00 0.00 0.00 79 1011.2
20260509031717 53 76 1.0 2.0 0.00 0.00 0.00 79 1011.3
20260509031640 53 76 1.0 4.0 0.00 0.00 0.00 79 1011.3
20260509031633 53 76 1.0 2.0 0.00 0.00 0.00 79 1011.3
20260509031413 53 77 1.0 4.0 0.00 0.00 0.00 79 1011.3
20260509031401 53 76 1.0 4.0 0.00 0.00 0.00 79 1011.4
20260509031349 53 76 1.0 4.0 0.00 0.00 0.00 79 1011.4
20260509031230 53 77 1.0 4.0 0.00 0.00 0.00 79 1011.3
20260509031015 53 76 1.0 4.0 0.00 0.00 0.00 79 1011.4
20260509030909 53 76 1.0 4.0 0.00 0.00 0.00 80 1011.4
20260509030809 53 76 1.0 4.0 0.00 0.00 0.00 80 1011.4
20260509030702 52 77 1.0 4.0 0.00 0.00 0.00 80 1011.4
20260509030602 52 77 1.0 4.0 0.00 0.00 0.00 80 1011.4
20260509030456 52 77 1.0 4.0 0.00 0.00 0.00 80 1011.4
20260509030356 52 76 1.0 4.0 0.00 0.00 0.00 80 1011.5
20260509030249 52 77 2.0 4.0 0.00 0.00 0.00 80 1011.5
20260509030229 52 77 2.0 4.0 0.00 0.00 0.00 80 1011.4
20260509030219 52 77 2.0 4.0 0.00 0.00 0.00 80 1011.5
20260509030059 52 77 2.0 4.0 0.00 0.00 0.00 80 1011.5
20260509025838 52 77 2.0 4.0 0.00 0.00 0.00 80 1011.4
20260509025738 52 77 2.0 4.0 0.00 0.00 0.00 80 1011.4
20260509025632 52 77 2.0 4.0 0.00 0.00 0.00 80 1011.4
20260509025613 52 76 2.0 4.0 0.00 0.00 0.00 80 1011.4
20260509025608 52 69 2.0 4.0 0.00 0.00 0.00 80 1011.4
20260509025557 52 76 2.0 4.0 0.00 0.00 0.00 80 1011.4
20260509025259 52 311 2.0 3.0 0.00 0.00 0.00 81 1011.3
20260509025249 52 312 2.0 3.0 0.00 0.00 0.00 80 1011.4
20260509025130 52 311 2.0 3.0 0.00 0.00 0.00 81 1011.3
20260509024914 52 311 2.0 3.0 0.00 0.00 0.00 81 1011.3
20260509024833 52 311 2.0 3.0 0.00 0.00 0.00 81 1011.3
20260509024824 52 311 2.0 3.0 0.00 0.00 0.00 81 1011.3
20260509024601 52 310 2.0 3.0 0.00 0.00 0.00 81 1011.2
20260509024502 52 311 1.0 3.0 0.00 0.00 0.00 81 1011.2
20260509024419 52 311 1.0 3.0 0.00 0.00 0.00 81 1011.2
20260509024411 52 311 1.0 3.0 0.00 0.00 0.00 81 1011.1
20260509024149 52 311 1.0 3.0 0.00 0.00 0.00 81 1011.1
20260509024051 52 310 1.0 3.0 0.00 0.00 0.00 81 1011.1
20260509023946 52 310 1.0 3.0 0.00 0.00 0.00 81 1011.1
20260509023844 52 311 1.0 2.0 0.00 0.00 0.00 81 1011.1
20260509023801 52 311 1.0 2.0 0.00 0.00 0.00 80 1010.9
20260509023754 52 311 1.0 2.0 0.00 0.00 0.00 81 1011.0
20260509023553 52 311 1.0 2.0 0.00 0.00 0.00 80 1010.8
20260509023547 52 311 1.0 2.0 0.00 0.00 0.00 80 1010.9
20260509023326 52 311 1.0 2.0 0.00 0.00 0.00 79 1010.8
20260509023241 52 311 0.0 2.0 0.00 0.00 0.00 79 1010.8
20260509023234 52 311 1.0 2.0 0.00 0.00 0.00 79 1010.8
20260509023020 52 311 0.0 2.0 0.00 0.00 0.00 79 1010.8
20260509022913 52 311 0.0 2.0 0.00 0.00 0.00 79 1010.8
20260509022814 52 311 0.0 2.0 0.00 0.00 0.00 79 1010.8
20260509022709 52 311 0.0 2.0 0.00 0.00 0.00 79 1010.8
20260509022625 52 311 0.0 2.0 0.00 0.00 0.00 78 1010.9
20260509022617 52 311 0.0 2.0 0.00 0.00 0.00 78 1010.9
20260509022416 52 311 0.0 2.0 0.00 0.00 0.00 78 1010.9
20260509022409 52 311 0.0 2.0 0.00 0.00 0.00 78 1010.9
20260509022157 52 311 0.0 2.0 0.00 0.00 0.00 78 1010.9
20260509022050 52 311 0.0 2.0 0.00 0.00 0.00 78 1010.9
20260509021950 52 311 0.0 2.0 0.00 0.00 0.00 78 1010.8
20260509021905 53 311 1.0 2.0 0.00 0.00 0.00 78 1010.8
20260509021858 52 311 0.0 2.0 0.00 0.00 0.00 78 1010.8
20260509021638 53 311 1.0 2.0 0.00 0.00 0.00 78 1010.7
20260509021632 53 311 1.0 2.0 0.00 0.00 0.00 78 1010.7
20260509021626 53 311 1.0 2.0 0.00 0.00 0.00 78 1010.7
20260509021615 53 311 1.0 2.0 0.00 0.00 0.00 78 1010.7
20260509021455 53 311 1.0 2.0 0.00 0.00 0.00 78 1010.7
20260509021204 53 311 1.0 2.0 0.00 0.00 0.00 77 1010.7
20260509021200 53 311 1.0 2.0 0.00 0.00 0.00 77 1010.7
20260509021152 53 311 1.0 2.0 0.00 0.00 0.00 77 1010.7
20260509020813 53 311 1.0 2.0 0.00 0.00 0.00 77 1010.7
20260509020715 53 311 1.0 2.0 0.00 0.00 0.00 77 1010.7
20260509020607 53 311 1.0 2.0 0.00 0.00 0.00 77 1010.7
20260509020508 53 311 1.0 2.0 0.00 0.00 0.00 76 1010.8
20260509020401 53 311 0.0 2.0 0.00 0.00 0.00 76 1010.8
20260509020317 53 311 0.0 2.0 0.00 0.00 0.00 76 1010.9
20260509020311 53 311 0.0 2.0 0.00 0.00 0.00 76 1010.8
20260509020056 53 311 0.0 2.0 0.00 0.00 0.00 76 1010.9
20260509015950 53 311 0.0 2.0 0.00 0.00 0.00 76 1010.9
20260509015850 53 311 0.0 2.0 0.00 0.00 0.00 75 1011.0
20260509015743 53 311 0.0 2.0 0.00 0.00 0.00 75 1011.0
20260509015644 53 311 0.0 2.0 0.00 0.00 0.00 75 1011.0
20260509015537 53 311 0.0 2.0 0.00 0.00 0.00 75 1010.9
20260509015513 53 311 0.0 2.0 0.00 0.00 0.00 75 1010.9
20260509015504 53 311 0.0 2.0 0.00 0.00 0.00 75 1010.9
20260509015345 53 311 0.0 2.0 0.00 0.00 0.00 75 1010.9
20260509015126 53 311 0.0 2.0 0.00 0.00 0.00 75 1010.9
20260509015026 53 311 0.0 2.0 0.00 0.00 0.00 75 1010.9
20260509014920 53 311 0.0 2.0 0.00 0.00 0.00 75 1010.9
20260509014820 53 311 1.0 2.0 0.00 0.00 0.00 75 1010.9
20260509014714 53 311 1.0 2.0 0.00 0.00 0.00 75 1011.0
20260509014615 53 311 1.0 2.0 0.00 0.00 0.00 75 1011.0
20260509014508 53 311 1.0 2.0 0.00 0.00 0.00 75 1010.9
20260509014407 53 311 1.0 2.0 0.00 0.00 0.00 75 1011.0
20260509014301 53 311 1.0 2.0 0.00 0.00 0.00 75 1011.0
20260509014202 53 311 1.0 2.0 0.00 0.00 0.00 75 1010.9
20260509014117 53 311 1.0 2.0 0.00 0.00 0.00 75 1010.9
20260509014110 53 311 1.0 2.0 0.00 0.00 0.00 75 1010.9
20260509013913 53 311 1.0 2.0 0.00 0.00 0.00 75 1010.9
20260509013904 53 311 1.0 2.0 0.00 0.00 0.00 75 1010.9
20260509013722 53 311 1.0 2.0 0.00 0.00 0.00 75 1010.9
20260509013717 53 311 1.0 2.0 0.00 0.00 0.00 75 1010.9
20260509013707 53 311 1.0 2.0 0.00 0.00 0.00 75 1010.9
20260509013338 53 311 1.0 2.0 0.00 0.00 0.00 75 1010.9
20260509013232 53 311 1.0 2.0 0.00 0.00 0.00 75 1010.9
20260509013132 53 311 1.0 2.0 0.00 0.00 0.00 75 1010.9
20260509013103 53 311 1.0 2.0 0.00 0.00 0.00 75 1011.0
20260509013058 53 311 1.0 2.0 0.00 0.00 0.00 75 1010.9
20260509013049 53 311 1.0 2.0 0.00 0.00 0.00 75 1011.0
20260509012720 53 311 1.0 2.0 0.00 0.00 0.00 74 1010.9
20260509012614 53 311 1.0 2.0 0.00 0.00 0.00 74 1010.9
20260509012529 53 311 0.0 2.0 0.00 0.00 0.00 73 1010.8
20260509012523 53 311 0.0 2.0 0.00 0.00 0.00 74 1010.9
20260509012308 53 311 0.0 2.0 0.00 0.00 0.00 73 1010.8
20260509012202 53 311 0.0 2.0 0.00 0.00 0.00 72 1010.8
20260509012102 53 311 0.0 2.0 0.00 0.00 0.00 72 1010.8
20260509011957 53 311 0.0 2.0 0.00 0.00 0.00 72 1010.8
20260509011856 53 311 0.0 2.0 0.00 0.00 0.00 72 1010.8
20260509011751 53 311 0.0 2.0 0.00 0.00 0.00 72 1010.7
20260509011650 53 311 0.0 2.0 0.00 0.00 0.00 72 1010.7
20260509011543 53 311 0.0 2.0 0.00 0.00 0.00 72 1010.7
20260509011444 53 311 0.0 2.0 0.00 0.00 0.00 71 1010.7
20260509011337 53 311 0.0 2.0 0.00 0.00 0.00 72 1010.8
20260509011238 53 311 0.0 2.0 0.00 0.00 0.00 72 1010.7
20260509011132 53 311 0.0 2.0 0.00 0.00 0.00 72 1010.7
20260509011049 53 311 0.0 2.0 0.00 0.00 0.00 71 1010.7
20260509011042 53 311 0.0 2.0 0.00 0.00 0.00 72 1010.7
20260509010841 53 311 0.0 2.0 0.00 0.00 0.00 71 1010.7
20260509010834 53 311 0.0 2.0 0.00 0.00 0.00 71 1010.7
20260509010620 53 311 0.0 2.0 0.00 0.00 0.00 71 1010.7
20260509010515 53 311 0.0 2.0 0.00 0.00 0.00 71 1010.6
20260509010415 53 311 0.0 1.0 0.00 0.00 0.00 71 1010.7
20260509010347 54 311 0.0 1.0 0.00 0.00 0.00 70 1010.7
20260509010337 53 311 0.0 1.0 0.00 0.00 0.00 71 1010.7
20260509010218 54 311 0.0 1.0 0.00 0.00 0.00 70 1010.7
20260509010004 54 311 0.0 1.0 0.00 0.00 0.00 70 1010.7
20260509005856 54 311 0.0 1.0 0.00 0.00 0.00 70 1010.7
20260509005756 54 311 0.0 0.0 0.00 0.00 0.00 70 1010.7
20260509005649 54 311 0.0 0.0 0.00 0.00 0.00 70 1010.7
20260509005550 54 311 0.0 0.0 0.00 0.00 0.00 69 1010.6
20260509005444 54 311 0.0 0.0 0.00 0.00 0.00 69 1010.7
20260509005344 54 311 0.0 0.0 0.00 0.00 0.00 68 1010.6
20260509005238 54 311 0.0 0.0 0.00 0.00 0.00 68 1010.6
20260509005137 54 311 0.0 0.0 0.00 0.00 0.00 68 1010.7
20260509005031 54 311 0.0 0.0 0.00 0.00 0.00 68 1010.7
20260509004932 54 311 0.0 0.0 0.00 0.00 0.00 68 1010.7
20260509004825 54 311 0.0 0.0 0.00 0.00 0.00 68 1010.6
20260509004726 54 311 0.0 2.0 0.00 0.00 0.00 68 1010.7
20260509004619 55 311 0.0 2.0 0.00 0.00 0.00 67 1010.6
20260509004520 55 311 0.0 2.0 0.00 0.00 0.00 67 1010.6
20260509004510 55 311 0.0 2.0 0.00 0.00 0.00 67 1010.6
20260509004459 55 311 0.0 2.0 0.00 0.00 0.00 68 1010.7
20260509004345 55 311 0.0 2.0 0.00 0.00 0.00 67 1010.6
20260509004337 55 311 0.0 2.0 0.00 0.00 0.00 68 1010.6
20260509004001 55 311 0.0 2.0 0.00 0.00 0.00 67 1010.5
20260509003903 55 311 0.0 2.0 0.00 0.00 0.00 66 1010.5
20260509003755 55 311 0.0 2.0 0.00 0.00 0.00 66 1010.6
20260509003656 55 311 0.0 2.0 0.00 0.00 0.00 66 1010.6
20260509003549 55 311 0.0 2.0 0.00 0.00 0.00 66 1010.6
20260509003506 55 311 0.0 2.0 0.00 0.00 0.00 66 1010.6
20260509003500 55 311 0.0 2.0 0.00 0.00 0.00 66 1010.6
20260509003300 56 311 0.0 3.0 0.00 0.00 0.00 65 1010.6
20260509003253 55 311 0.0 2.0 0.00 0.00 0.00 65 1010.6
20260509003038 56 311 0.0 3.0 0.00 0.00 0.00 65 1010.6
20260509002932 56 311 0.0 3.0 0.00 0.00 0.00 64 1010.6
20260509002832 56 311 0.0 3.0 0.00 0.00 0.00 64 1010.7
20260509002726 56 311 0.0 3.0 0.00 0.00 0.00 64 1010.6
20260509002626 56 311 0.0 3.0 0.00 0.00 0.00 64 1010.6
20260509002524 56 311 1.0 3.0 0.00 0.00 0.00 64 1010.6
20260509002422 56 311 1.0 3.0 0.00 0.00 0.00 64 1010.6
20260509002339 56 311 1.0 3.0 0.00 0.00 0.00 64 1010.5
20260509002333 56 311 1.0 3.0 0.00 0.00 0.00 64 1010.5
20260509002155 56 311 2.0 3.0 0.00 0.00 0.00 62 1010.4
20260509002146 56 311 1.0 3.0 0.00 0.00 0.00 63 1010.5
20260509002027 56 311 2.0 3.0 0.00 0.00 0.00 63 1010.5
20260509001808 56 311 2.0 3.0 0.00 0.00 0.00 62 1010.4
20260509001708 57 311 2.0 3.0 0.00 0.00 0.00 62 1010.4
20260509001640 57 311 2.0 3.0 0.00 0.00 0.00 61 1010.4
20260509001635 57 311 2.0 3.0 0.00 0.00 0.00 61 1010.4
20260509001626 57 311 2.0 3.0 0.00 0.00 0.00 61 1010.4
20260509001257 57 311 2.0 3.0 0.00 0.00 0.00 61 1010.4
20260509001149 57 311 2.0 3.0 0.00 0.00 0.00 61 1010.4
20260509001109 57 311 2.0 3.0 0.00 0.00 0.00 61 1010.4
20260509001102 57 311 2.0 3.0 0.00 0.00 0.00 61 1010.4
20260509000844 57 311 2.0 3.0 0.00 0.00 0.00 61 1010.3
20260509000737 57 311 2.0 3.0 0.00 0.00 0.00 61 1010.3
20260509000638 57 311 2.0 3.0 0.00 0.00 0.00 61 1010.3
20260509000533 57 311 2.0 3.0 0.00 0.00 0.00 61 1010.4
20260509000432 57 311 2.0 3.0 0.00 0.00 0.00 60 1010.4
20260509000348 57 311 2.0 3.0 0.00 0.00 0.00 60 1010.4
20260509000340 57 311 2.0 3.0 0.00 0.00 0.00 60 1010.4
20260509000119 57 311 2.0 3.0 0.00 0.00 0.00 60 1010.3
20260509000020 57 311 1.0 3.0 0.00 0.00 0.00 59 1010.3
20260508235915 58 311 1.0 3.0 0.00 0.00 0.00 58 1010.3
20260508235832 58 311 1.0 3.0 0.00 0.00 0.00 58 1010.3
20260508235824 58 311 1.0 3.0 0.00 0.00 0.00 58 1010.3
20260508235608 58 311 1.0 3.0 0.00 0.00 0.00 57 1010.3
20260508235502 58 311 1.0 3.0 0.00 0.00 0.00 57 1010.2
20260508235420 59 311 2.0 7.0 0.00 0.00 0.00 56 1010.2
20260508235412 58 311 1.0 7.0 0.00 0.00 0.00 57 1010.2
20260508235357 58 311 1.0 7.0 0.00 0.00 0.00 57 1010.2
20260508235238 59 311 2.0 7.0 0.00 0.00 0.00 57 1010.1
20260508235117 59 311 2.0 7.0 0.00 0.00 0.00 56 1010.1
20260508235000 59 311 2.0 7.0 0.00 0.00 0.00 56 1010.2
20260508234744 59 311 2.0 7.0 0.00 0.00 0.00 56 1010.2
20260508234637 59 311 3.0 7.0 0.00 0.00 0.00 57 1010.2
20260508234538 60 311 3.0 7.0 0.00 0.00 0.00 56 1010.2
20260508234431 60 311 3.0 7.0 0.00 0.00 0.00 56 1010.2
20260508234332 60 311 4.0 7.0 0.00 0.00 0.00 56 1010.2
20260508234225 60 311 4.0 7.0 0.00 0.00 0.00 56 1010.2
20260508234126 60 311 4.0 7.0 0.00 0.00 0.00 56 1010.2
20260508234020 60 311 4.0 7.0 0.00 0.00 0.00 57 1010.1
20260508233958 60 309 4.0 7.0 0.00 0.00 0.00 54 1010.1
20260508233948 60 311 4.0 7.0 0.00 0.00 0.00 56 1010.2
20260508233828 60 311 4.0 7.0 0.00 0.00 0.00 54 1010.1
20260508233607 60 309 4.0 7.0 0.00 0.00 0.00 54 1010.0
20260508233508 60 313 4.0 7.0 0.00 0.00 0.00 54 1010.0
20260508233403 60 321 4.0 7.0 0.00 0.00 0.00 54 1010.0
20260508233302 60 312 3.0 7.0 0.00 0.00 0.00 53 1010.0
20260508233157 60 327 3.0 7.0 0.00 0.00 0.00 53 1010.0
20260508233056 60 304 3.0 7.0 0.00 0.00 0.00 53 1009.9
20260508232949 61 304 3.0 7.0 0.00 0.00 0.00 53 1009.9
20260508232850 61 304 3.0 7.0 0.00 0.00 0.00 52 1009.9
20260508232744 61 304 3.0 7.0 0.00 0.00 0.00 52 1009.9
20260508232645 61 315 3.0 7.0 0.00 0.00 0.00 52 1009.9
20260508232601 61 301 3.0 6.0 0.00 0.00 0.00 52 1009.9
20260508232553 61 317 3.0 7.0 0.00 0.00 0.00 52 1009.9
20260508232331 61 301 3.0 6.0 0.00 0.00 0.00 52 1009.8
20260508232232 61 301 3.0 6.0 0.00 0.00 0.00 52 1009.8
20260508232125 61 301 3.0 6.0 0.00 0.00 0.00 52 1009.8
20260508232026 61 301 3.0 6.0 0.00 0.00 0.00 52 1009.8
20260508231921 61 298 3.0 6.0 0.00 0.00 0.00 52 1009.8
20260508231820 61 297 3.0 6.0 0.00 0.00 0.00 52 1009.8
20260508231737 61 297 3.0 6.0 0.00 0.00 0.00 52 1009.8
20260508231730 61 297 2.0 6.0 0.00 0.00 0.00 52 1009.8
20260508231606 61 297 3.0 6.0 0.00 0.00 0.00 52 1009.8
20260508231554 61 297 3.0 6.0 0.00 0.00 0.00 51 1009.8
20260508231436 61 297 3.0 6.0 0.00 0.00 0.00 51 1009.7
20260508231317 61 298 3.0 6.0 0.00 0.00 0.00 52 1009.7
20260508231056 62 298 3.0 6.0 0.00 0.00 0.00 52 1009.7
20260508230956 62 298 3.0 6.0 0.00 0.00 0.00 52 1009.7
20260508230913 62 298 4.0 6.0 0.00 0.00 0.00 53 1009.7
20260508230906 62 298 3.0 6.0 0.00 0.00 0.00 52 1009.7
20260508230745 62 300 4.0 6.0 0.00 0.00 0.00 52 1009.8
20260508230741 62 300 4.0 6.0 0.00 0.00 0.00 51 1009.7
20260508230737 62 300 3.0 6.0 0.00 0.00 0.00 51 1009.8
20260508230724 62 298 4.0 6.0 0.00 0.00 0.00 53 1009.7
20260508230232 62 304 3.0 6.0 0.00 0.00 0.00 50 1009.7
20260508230132 62 304 3.0 6.0 0.00 0.00 0.00 50 1009.8
20260508230026 62 304 3.0 6.0 0.00 0.00 0.00 50 1009.7
20260508225944 62 280 2.0 5.0 0.00 0.00 0.00 51 1009.8
20260508225936 62 294 3.0 6.0 0.00 0.00 0.00 51 1009.8
20260508225720 62 281 2.0 5.0 0.00 0.00 0.00 51 1009.8
20260508225614 62 281 2.0 5.0 0.00 0.00 0.00 50 1009.8
20260508225514 62 281 2.0 5.0 0.00 0.00 0.00 51 1009.8
20260508225407 62 281 3.0 8.0 0.00 0.00 0.00 51 1009.8
20260508225308 62 280 3.0 8.0 0.00 0.00 0.00 51 1009.8
20260508225201 62 281 3.0 8.0 0.00 0.00 0.00 51 1009.8
20260508225142 62 286 4.0 8.0 0.00 0.00 0.00 52 1009.8
20260508225131 62 280 3.0 8.0 0.00 0.00 0.00 51 1009.8
20260508225012 62 285 4.0 8.0 0.00 0.00 0.00 52 1009.8
20260508224749 62 286 4.0 8.0 0.00 0.00 0.00 51 1009.8
20260508224708 62 286 4.0 8.0 0.00 0.00 0.00 50 1009.8
20260508224700 62 286 4.0 8.0 0.00 0.00 0.00 50 1009.8
20260508224444 62 252 4.0 8.0 0.00 0.00 0.00 49 1009.9
20260508224339 62 259 5.0 8.0 0.00 0.00 0.00 50 1009.8
20260508224237 62 296 5.0 8.0 0.00 0.00 0.00 51 1009.9